VIR137 EGLL-KJFK

Flight info

Callsign VIR137
Flight time 7h 52m
Altitude 36000
Route ULTIB T420 TNT UL28 PENIL M144 BAGSO DCT DOGAL/M081F370 DCT 54N020W 53N030W 51N040W 49N050W DCT JOOPY/N0471F380 N328A TUSKY DCT PLYMM PARCH4
Aircraft A339/H-SADE1E2E3GHIJ3J5M1P2RWXY/LB2D1

Departure

Time 2026-05-08 17:35
Airport London Heathrow Airport (EGLL)

Arrival

Time 2026-05-09 01:27
Airport John F. Kennedy International Airport (KJFK)
Time Latitude Longitude Altitude Speed Heading
2026-05-08 17:05 51.46844 -0.46144 89 ft 0 kts 236°
2026-05-08 17:22 51.46845 -0.46141 89 ft 2 kts 236°
2026-05-08 17:22 51.46852 -0.46122 89 ft 2 kts 243°
2026-05-08 17:23 51.46859 -0.46102 89 ft 2 kts 242°
2026-05-08 17:23 51.46865 -0.46083 89 ft 2 kts 240°
2026-05-08 17:23 51.46872 -0.46066 89 ft 1 kts 241°
2026-05-08 17:23 51.46882 -0.46049 89 ft 2 kts 173°
2026-05-08 17:24 51.46890 -0.46053 89 ft 1 kts 143°
2026-05-08 17:24 51.46893 -0.46057 89 ft 0 kts 146°
2026-05-08 17:28 51.46883 -0.46046 89 ft 5 kts 146°
2026-05-08 17:29 51.46849 -0.46012 89 ft 7 kts 154°
2026-05-08 17:29 51.46776 -0.45993 89 ft 12 kts 192°
2026-05-08 17:29 51.46749 -0.46110 89 ft 15 kts 270°
2026-05-08 17:29 51.46746 -0.46340 85 ft 17 kts 270°
2026-05-08 17:30 51.46746 -0.46469 84 ft 18 kts 270°
2026-05-08 17:30 51.46748 -0.46690 82 ft 15 kts 271°
2026-05-08 17:30 51.46748 -0.46858 82 ft 15 kts 270°
2026-05-08 17:30 51.46748 -0.47026 83 ft 15 kts 270°
2026-05-08 17:31 51.46747 -0.47129 84 ft 15 kts 270°
2026-05-08 17:31 51.46746 -0.47308 84 ft 17 kts 269°
2026-05-08 17:31 51.46747 -0.47493 85 ft 16 kts 271°
2026-05-08 17:31 51.46745 -0.47665 85 ft 16 kts 269°
2026-05-08 17:32 51.46744 -0.47857 85 ft 18 kts 270°
2026-05-08 17:32 51.46743 -0.48064 85 ft 19 kts 269°
2026-05-08 17:32 51.46741 -0.48290 84 ft 19 kts 271°
2026-05-08 17:32 51.46741 -0.48519 82 ft 19 kts 269°
2026-05-08 17:33 51.46732 -0.48695 82 ft 12 kts 238°
2026-05-08 17:33 51.46650 -0.48745 82 ft 14 kts 193°
2026-05-08 17:33 51.46540 -0.48781 82 ft 15 kts 171°
2026-05-08 17:33 51.46481 -0.48666 82 ft 11 kts 95°
2026-05-08 17:34 51.46480 -0.48646 82 ft 1 kts 94°
2026-05-08 17:34 51.46478 -0.48411 82 ft 54 kts 90°
2026-05-08 17:34 51.46482 -0.47721 85 ft 108 kts 91°
2026-05-08 17:34 51.46487 -0.46253 95 ft 166 kts 92°
2026-05-08 17:35 51.46513 -0.43654 799 ft 181 kts 85°
2026-05-08 17:35 51.46578 -0.42229 1304 ft 180 kts 86°
2026-05-08 17:35 51.46980 -0.40286 2068 ft 173 kts 51°
2026-05-08 17:35 51.48176 -0.38295 2445 ft 177 kts 47°
2026-05-08 17:36 51.48757 -0.37304 2541 ft 181 kts 48°
2026-05-08 17:36 51.49648 -0.35728 2708 ft 190 kts 48°
2026-05-08 17:36 51.50948 -0.33362 2920 ft 218 kts 49°
2026-05-08 17:36 51.51964 -0.31320 3223 ft 236 kts 62°
2026-05-08 17:37 51.52382 -0.29631 3468 ft 247 kts 73°
2026-05-08 17:37 51.52970 -0.26794 3908 ft 262 kts 71°
2026-05-08 17:37 51.53591 -0.23885 4587 ft 267 kts 71°
2026-05-08 17:37 51.54336 -0.21108 5269 ft 270 kts 54°
2026-05-08 17:38 51.55759 -0.19102 5889 ft 274 kts 26°
2026-05-08 17:38 51.57646 -0.18413 6567 ft 276 kts 357°
2026-05-08 17:38 51.59489 -0.19227 7265 ft 277 kts 330°
2026-05-08 17:38 51.61061 -0.21109 7921 ft 279 kts 321°
2026-05-08 17:39 51.63133 -0.23905 8811 ft 284 kts 319°
2026-05-08 17:39 51.64177 -0.25350 9259 ft 285 kts 319°
2026-05-08 17:39 51.65739 -0.27516 9917 ft 288 kts 321°
2026-05-08 17:39 51.67501 -0.29346 10341 ft 300 kts 330°
2026-05-08 17:40 51.69385 -0.31145 10319 ft 327 kts 329°
2026-05-08 17:40 51.71440 -0.33122 10380 ft 351 kts 329°
2026-05-08 17:40 51.73600 -0.35207 10801 ft 362 kts 329°
2026-05-08 17:40 51.75746 -0.37280 11528 ft 363 kts 329°
2026-05-08 17:41 51.77920 -0.39383 12136 ft 366 kts 329°
2026-05-08 17:41 51.80114 -0.41507 12727 ft 370 kts 329°
2026-05-08 17:41 51.83091 -0.44393 13533 ft 375 kts 329°
2026-05-08 17:41 51.84621 -0.45877 13934 ft 377 kts 329°
2026-05-08 17:42 51.86902 -0.48094 14521 ft 380 kts 329°
2026-05-08 17:42 51.89168 -0.50297 15083 ft 383 kts 329°
2026-05-08 17:42 51.91431 -0.52500 15623 ft 386 kts 329°
2026-05-08 17:42 51.93740 -0.54752 16153 ft 389 kts 329°
2026-05-08 17:43 51.96052 -0.57008 16667 ft 392 kts 329°
2026-05-08 17:43 51.98401 -0.59302 17174 ft 395 kts 329°
2026-05-08 17:43 52.00770 -0.61619 17672 ft 398 kts 329°
2026-05-08 17:43 52.03130 -0.63931 18154 ft 401 kts 329°
2026-05-08 17:44 52.06342 -0.67082 18791 ft 405 kts 328°
2026-05-08 17:44 52.07919 -0.68632 19096 ft 407 kts 328°
2026-05-08 17:44 52.10365 -0.71037 19559 ft 409 kts 328°
2026-05-08 17:44 52.12779 -0.73414 19997 ft 412 kts 328°
2026-05-08 17:45 52.16065 -0.76654 20567 ft 415 kts 328°
2026-05-08 17:45 52.17697 -0.78267 20839 ft 417 kts 328°
2026-05-08 17:45 52.20193 -0.80734 21244 ft 420 kts 328°
2026-05-08 17:45 52.23537 -0.84045 21770 ft 423 kts 328°
2026-05-08 17:46 52.26051 -0.86538 22153 ft 425 kts 328°
2026-05-08 17:46 52.27714 -0.88189 22401 ft 427 kts 328°
2026-05-08 17:46 52.27725 -0.88200 22403 ft 427 kts 328°
2026-05-08 17:47 52.30492 -0.90950 22832 ft 430 kts 328°
2026-05-08 17:47 52.33019 -0.93466 23197 ft 432 kts 328°
2026-05-08 17:47 52.35292 -0.95732 23516 ft 434 kts 328°
2026-05-08 17:47 52.37014 -0.97449 23750 ft 436 kts 328°
2026-05-08 17:48 52.40466 -1.00894 24231 ft 438 kts 328°
2026-05-08 17:48 52.43064 -1.03491 24635 ft 440 kts 327°
2026-05-08 17:48 52.45609 -1.06040 25049 ft 440 kts 326°
2026-05-08 17:48 52.48061 -1.08498 25456 ft 441 kts 326°
2026-05-08 17:49 52.50431 -1.10884 25813 ft 442 kts 326°
2026-05-08 17:49 52.52745 -1.13216 26137 ft 443 kts 326°
2026-05-08 17:49 52.55065 -1.15553 26450 ft 444 kts 325°
2026-05-08 17:49 52.57560 -1.18069 26816 ft 445 kts 325°
2026-05-08 17:50 52.59927 -1.20459 27110 ft 447 kts 325°
2026-05-08 17:50 52.62334 -1.22891 27410 ft 449 kts 325°
2026-05-08 17:50 52.64733 -1.25319 27711 ft 450 kts 325°
2026-05-08 17:50 52.67220 -1.27838 28010 ft 452 kts 325°
2026-05-08 17:51 52.69650 -1.30303 28329 ft 453 kts 325°
2026-05-08 17:51 52.72163 -1.32858 28622 ft 454 kts 325°
2026-05-08 17:51 52.74716 -1.35459 28871 ft 456 kts 325°
2026-05-08 17:51 52.77293 -1.38086 29134 ft 458 kts 325°
2026-05-08 17:52 52.79836 -1.40685 29392 ft 459 kts 325°
2026-05-08 17:52 52.82357 -1.43261 29729 ft 458 kts 324°
2026-05-08 17:52 52.87416 -1.48445 30425 ft 456 kts 324°
2026-05-08 17:53 52.89991 -1.51089 30814 ft 455 kts 324°
2026-05-08 17:53 52.92566 -1.53740 31164 ft 453 kts 324°
2026-05-08 17:53 52.95016 -1.56261 31548 ft 451 kts 324°
2026-05-08 17:53 52.97410 -1.58732 31919 ft 448 kts 324°
2026-05-08 17:54 52.99826 -1.61225 32269 ft 446 kts 324°
2026-05-08 17:54 53.02235 -1.63716 32628 ft 444 kts 324°
2026-05-08 17:54 53.04674 -1.66244 32945 ft 442 kts 323°
2026-05-08 17:54 53.07150 -1.68809 33310 ft 439 kts 323°
2026-05-08 17:55 53.09552 -1.71306 33588 ft 438 kts 323°
2026-05-08 17:55 53.11971 -1.73824 33855 ft 438 kts 323°
2026-05-08 17:55 53.14315 -1.76267 34160 ft 435 kts 323°
2026-05-08 17:55 53.16644 -1.78694 34435 ft 434 kts 323°
2026-05-08 17:56 53.18999 -1.81156 34724 ft 432 kts 323°
2026-05-08 17:56 53.21379 -1.83677 34925 ft 430 kts 320°
2026-05-08 17:56 53.23472 -1.86719 35066 ft 423 kts 308°
2026-05-08 17:56 53.25069 -1.90358 35197 ft 418 kts 296°
2026-05-08 17:57 53.26265 -1.94368 35344 ft 417 kts 293°
2026-05-08 17:57 53.27471 -1.98428 35477 ft 417 kts 294°
2026-05-08 17:57 53.28667 -2.02450 35634 ft 417 kts 294°
2026-05-08 17:57 53.29836 -2.06388 35752 ft 418 kts 294°
2026-05-08 17:58 53.31034 -2.10425 35878 ft 419 kts 294°
2026-05-08 17:58 53.32232 -2.14466 36002 ft 419 kts 293°
2026-05-08 17:58 53.33387 -2.18370 36097 ft 420 kts 293°
2026-05-08 17:58 53.34579 -2.22408 36231 ft 420 kts 293°
2026-05-08 17:59 53.35714 -2.26453 36386 ft 417 kts 290°
2026-05-08 17:59 53.36610 -2.30694 36493 ft 416 kts 285°
2026-05-08 17:59 53.37381 -2.34907 36612 ft 416 kts 285°
2026-05-08 17:59 53.38170 -2.39086 36741 ft 416 kts 285°
2026-05-08 18:00 53.38958 -2.43249 36897 ft 415 kts 285°
2026-05-08 18:00 53.40618 -2.52020 37167 ft 415 kts 285°
2026-05-08 18:00 53.41451 -2.56424 37293 ft 415 kts 285°
2026-05-08 18:01 53.42258 -2.60698 37398 ft 415 kts 285°
2026-05-08 18:01 53.43072 -2.65034 37515 ft 414 kts 284°
2026-05-08 18:01 53.43854 -2.69202 37628 ft 414 kts 284°
2026-05-08 18:01 53.44648 -2.73441 37733 ft 414 kts 284°
2026-05-08 18:02 53.45437 -2.77661 37861 ft 413 kts 284°
2026-05-08 18:02 53.45954 -2.80430 37912 ft 413 kts 284°
2026-05-08 18:02 53.47001 -2.86058 38066 ft 413 kts 284°
2026-05-08 18:02 53.47779 -2.90254 38047 ft 416 kts 284°
2026-05-08 18:03 53.49362 -2.98812 38063 ft 419 kts 284°
2026-05-08 18:03 53.50947 -3.07421 38069 ft 423 kts 284°
2026-05-08 18:04 53.52588 -3.16383 38073 ft 426 kts 284°
2026-05-08 18:04 53.53420 -3.20932 37932 ft 422 kts 284°
2026-05-08 18:04 53.54254 -3.25508 37251 ft 421 kts 284°
2026-05-08 18:05 53.55077 -3.30042 36446 ft 421 kts 284°
2026-05-08 18:05 53.55901 -3.34587 36023 ft 416 kts 284°
2026-05-08 18:05 53.56706 -3.39042 36176 ft 415 kts 284°
2026-05-08 18:05 53.57519 -3.43558 36083 ft 421 kts 284°
2026-05-08 18:06 53.59137 -3.52567 36099 ft 425 kts 284°
2026-05-08 18:06 53.60770 -3.61699 36077 ft 430 kts 284°
2026-05-08 18:07 53.61850 -3.70684 36074 ft 427 kts 270°
2026-05-08 18:07 53.62184 -3.80120 36078 ft 421 kts 271°
2026-05-08 18:08 53.62551 -3.89276 36075 ft 420 kts 271°
2026-05-08 18:08 53.62932 -3.98794 36083 ft 421 kts 271°
2026-05-08 18:09 53.63309 -4.08340 36101 ft 421 kts 271°
2026-05-08 18:09 53.63683 -4.18045 36093 ft 422 kts 271°
2026-05-08 18:10 53.64051 -4.27770 36083 ft 422 kts 271°
2026-05-08 18:10 53.64410 -4.37447 36086 ft 421 kts 271°
2026-05-08 18:11 53.64743 -4.46636 36085 ft 422 kts 271°
2026-05-08 18:11 53.65060 -4.55602 36083 ft 422 kts 271°
2026-05-08 18:12 53.65368 -4.64471 36086 ft 421 kts 271°
2026-05-08 18:12 53.65668 -4.73327 36102 ft 422 kts 270°
2026-05-08 18:13 53.65957 -4.82032 36092 ft 422 kts 270°
2026-05-08 18:13 53.66239 -4.90586 36100 ft 421 kts 270°
2026-05-08 18:14 53.66540 -4.99988 36089 ft 421 kts 270°
2026-05-08 18:14 53.66838 -5.09462 36097 ft 421 kts 270°
2026-05-08 18:15 53.67097 -5.17968 36101 ft 421 kts 270°
2026-05-08 18:15 53.67342 -5.26366 36098 ft 421 kts 270°
2026-05-08 18:16 53.67580 -5.34753 36099 ft 422 kts 270°
2026-05-08 18:16 53.67817 -5.43281 36095 ft 422 kts 270°
2026-05-08 18:17 53.68067 -5.51731 36093 ft 422 kts 272°
2026-05-08 18:17 53.68746 -5.60397 36098 ft 424 kts 274°
2026-05-08 18:18 53.69379 -5.68949 36104 ft 424 kts 273°
2026-05-08 18:18 53.70002 -5.77598 36108 ft 424 kts 273°
2026-05-08 18:19 53.70621 -5.86300 36104 ft 423 kts 273°
2026-05-08 18:19 53.71232 -5.95010 36100 ft 423 kts 273°
2026-05-08 18:20 53.71838 -6.03713 36102 ft 424 kts 272°
2026-05-08 18:20 53.72429 -6.12315 36105 ft 424 kts 273°
2026-05-08 18:21 53.73013 -6.20875 36119 ft 422 kts 272°
2026-05-08 18:21 53.73580 -6.29316 36116 ft 424 kts 272°
2026-05-08 18:22 53.74142 -6.37753 36118 ft 423 kts 272°
2026-05-08 18:22 53.74694 -6.46127 36110 ft 424 kts 272°
2026-05-08 18:23 53.75241 -6.54520 36115 ft 424 kts 272°
2026-05-08 18:23 53.75790 -6.63043 36106 ft 424 kts 272°
2026-05-08 18:24 53.76339 -6.71655 36112 ft 423 kts 272°
2026-05-08 18:24 53.76884 -6.80317 36109 ft 424 kts 272°
2026-05-08 18:25 53.77409 -6.88740 36118 ft 423 kts 271°
2026-05-08 18:25 53.77929 -6.97178 36117 ft 424 kts 272°
2026-05-08 18:26 53.78431 -7.05447 36095 ft 424 kts 272°
2026-05-08 18:26 53.78933 -7.13810 36134 ft 424 kts 271°
2026-05-08 18:27 53.79357 -7.20916 36226 ft 425 kts 271°
2026-05-08 18:27 53.79940 -7.30873 36378 ft 424 kts 272°
2026-05-08 18:28 53.80436 -7.39411 36441 ft 426 kts 272°
2026-05-08 18:28 53.80928 -7.47994 36541 ft 426 kts 272°
2026-05-08 18:29 53.81422 -7.56741 36612 ft 428 kts 272°
2026-05-08 18:29 53.81914 -7.65560 36713 ft 428 kts 271°
2026-05-08 18:30 53.82397 -7.74348 36843 ft 428 kts 271°
2026-05-08 18:30 53.82632 -7.78678 36945 ft 427 kts 271°
2026-05-08 18:30 53.82864 -7.82953 36988 ft 428 kts 271°
2026-05-08 18:31 53.83332 -7.91695 37009 ft 430 kts 271°
2026-05-08 18:31 53.83796 -8.00485 37116 ft 430 kts 271°
2026-05-08 18:32 53.84249 -8.09200 37234 ft 429 kts 271°
2026-05-08 18:32 53.84693 -8.17833 37307 ft 430 kts 271°
2026-05-08 18:33 53.85133 -8.26546 37368 ft 431 kts 271°
2026-05-08 18:33 53.85566 -8.35224 37444 ft 431 kts 271°
2026-05-08 18:34 53.85984 -8.43743 37476 ft 432 kts 271°
2026-05-08 18:34 53.86395 -8.52231 37551 ft 432 kts 271°
2026-05-08 18:35 53.86821 -8.61139 37615 ft 433 kts 271°
2026-05-08 18:35 53.87239 -8.70075 37670 ft 433 kts 271°
2026-05-08 18:36 53.87653 -8.79014 37724 ft 434 kts 271°
2026-05-08 18:36 53.88055 -8.87888 37770 ft 434 kts 271°
2026-05-08 18:37 53.88457 -8.96845 37852 ft 434 kts 271°
2026-05-08 18:37 53.88849 -9.05776 37907 ft 435 kts 271°
2026-05-08 18:38 53.89238 -9.14799 37925 ft 436 kts 271°
2026-05-08 18:38 53.89619 -9.23803 37943 ft 436 kts 271°
2026-05-08 18:39 53.89996 -9.32838 38000 ft 437 kts 271°
2026-05-08 18:39 53.90367 -9.41883 38042 ft 437 kts 271°
2026-05-08 18:40 53.90727 -9.50852 38096 ft 437 kts 271°
2026-05-08 18:40 53.91087 -9.59949 38141 ft 435 kts 271°
2026-05-08 18:41 53.91435 -9.68941 38136 ft 435 kts 270°
2026-05-08 18:41 53.91775 -9.77955 38166 ft 438 kts 270°
2026-05-08 18:42 53.92113 -9.87097 38165 ft 440 kts 270°
2026-05-08 18:42 53.92450 -9.96349 38154 ft 442 kts 271°
2026-05-08 18:43 53.92778 -10.05559 38182 ft 442 kts 271°
2026-05-08 18:43 53.93102 -10.14812 38178 ft 442 kts 271°
2026-05-08 18:44 53.93414 -10.23957 38165 ft 441 kts 271°
2026-05-08 18:44 53.93718 -10.33117 38176 ft 440 kts 271°
2026-05-08 18:45 53.94017 -10.42287 38178 ft 440 kts 271°
2026-05-08 18:45 53.94307 -10.51446 38175 ft 441 kts 271°
2026-05-08 18:46 53.94589 -10.60580 38176 ft 441 kts 271°
2026-05-08 18:46 53.94869 -10.69823 38191 ft 442 kts 270°
2026-05-08 18:47 53.95141 -10.79058 38198 ft 441 kts 270°
2026-05-08 18:47 53.95405 -10.88255 38180 ft 442 kts 270°
2026-05-08 18:48 53.95661 -10.97471 38193 ft 442 kts 270°
2026-05-08 18:48 53.95913 -11.06737 38197 ft 442 kts 270°
2026-05-08 18:49 53.96157 -11.16023 38203 ft 443 kts 270°
2026-05-08 18:49 53.96395 -11.25334 38201 ft 443 kts 270°
2026-05-08 18:50 53.96626 -11.34652 38183 ft 444 kts 270°
2026-05-08 18:50 53.96852 -11.44007 38195 ft 444 kts 270°
2026-05-08 18:51 53.97069 -11.53346 38189 ft 445 kts 270°
2026-05-08 18:51 53.97279 -11.62672 38209 ft 444 kts 270°
2026-05-08 18:52 53.97483 -11.72081 38200 ft 444 kts 269°
2026-05-08 18:52 53.97680 -11.81443 38205 ft 444 kts 269°
2026-05-08 18:53 53.97868 -11.90829 38195 ft 444 kts 269°
2026-05-08 18:53 53.98050 -12.00237 38202 ft 443 kts 270°
2026-05-08 18:54 53.98223 -12.09565 38209 ft 443 kts 269°
2026-05-08 18:54 53.98389 -12.18944 38206 ft 444 kts 270°
2026-05-08 18:55 53.98627 -12.33045 38183 ft 445 kts 270°
2026-05-08 18:56 53.98777 -12.42493 38209 ft 446 kts 270°
2026-05-08 18:56 53.98919 -12.51937 38205 ft 445 kts 270°
2026-05-08 18:57 53.99054 -12.61438 38213 ft 446 kts 270°
2026-05-08 18:57 53.99184 -12.71084 38218 ft 447 kts 269°
2026-05-08 18:58 53.99306 -12.80678 38214 ft 447 kts 269°
2026-05-08 18:58 53.99419 -12.90185 38226 ft 448 kts 269°
2026-05-08 18:59 53.99524 -12.99711 38234 ft 448 kts 269°
2026-05-08 18:59 53.99622 -13.09188 38237 ft 449 kts 269°
2026-05-08 19:00 53.99714 -13.18840 38227 ft 449 kts 269°
2026-05-08 19:00 53.99797 -13.28401 38234 ft 449 kts 269°
2026-05-08 19:01 53.99873 -13.37993 38227 ft 451 kts 269°
2026-05-08 19:01 53.99941 -13.47625 38236 ft 451 kts 270°
2026-05-08 19:02 54.00003 -13.57208 38228 ft 451 kts 269°
2026-05-08 19:02 54.00056 -13.66841 38243 ft 449 kts 269°
2026-05-08 19:03 54.00101 -13.76389 38232 ft 449 kts 269°
2026-05-08 19:03 54.00138 -13.86077 38256 ft 450 kts 269°
2026-05-08 19:04 54.00168 -13.95765 38246 ft 450 kts 269°
2026-05-08 19:04 54.00192 -14.05449 38261 ft 449 kts 269°
2026-05-08 19:05 54.00205 -14.15161 38268 ft 450 kts 269°
2026-05-08 19:05 54.00211 -14.24831 38260 ft 452 kts 269°
2026-05-08 19:06 54.00211 -14.34655 38256 ft 453 kts 269°
2026-05-08 19:06 54.00203 -14.44377 38250 ft 452 kts 269°
2026-05-08 19:07 54.00186 -14.54163 38260 ft 453 kts 269°
2026-05-08 19:07 54.00161 -14.63926 38256 ft 452 kts 269°
2026-05-08 19:08 54.00127 -14.73724 38263 ft 453 kts 269°
2026-05-08 19:08 54.00087 -14.83489 38264 ft 454 kts 269°
2026-05-08 19:09 54.00038 -14.93345 38276 ft 455 kts 269°
2026-05-08 19:09 54.00040 -15.03155 38277 ft 455 kts 272°
2026-05-08 19:10 54.00263 -15.13067 38270 ft 456 kts 271°
2026-05-08 19:10 54.00454 -15.22849 38272 ft 456 kts 271°
2026-05-08 19:11 54.00636 -15.32739 38271 ft 456 kts 272°
2026-05-08 19:11 54.00811 -15.42605 38263 ft 455 kts 272°
2026-05-08 19:12 54.00977 -15.52433 38261 ft 455 kts 272°
2026-05-08 19:12 54.01133 -15.62277 38274 ft 455 kts 272°
2026-05-08 19:13 54.01281 -15.72082 38285 ft 455 kts 271°
2026-05-08 19:13 54.01423 -15.81906 38289 ft 457 kts 271°
2026-05-08 19:14 54.01555 -15.91669 38294 ft 458 kts 271°
2026-05-08 19:14 54.01681 -16.01536 38286 ft 458 kts 271°
2026-05-08 19:15 54.01799 -16.11404 38285 ft 458 kts 271°
2026-05-08 19:15 54.01908 -16.21298 38271 ft 459 kts 271°
2026-05-08 19:16 54.02009 -16.31155 38272 ft 459 kts 271°
2026-05-08 19:16 54.02102 -16.41029 38274 ft 458 kts 271°
2026-05-08 19:17 54.02187 -16.50958 38285 ft 460 kts 272°
2026-05-08 19:17 54.02265 -16.60809 38289 ft 460 kts 272°
2026-05-08 19:18 54.02333 -16.70780 38298 ft 462 kts 271°
2026-05-08 19:18 54.02395 -16.80685 38303 ft 462 kts 271°
2026-05-08 19:19 54.02449 -16.90674 38302 ft 463 kts 271°
2026-05-08 19:19 54.02495 -17.00661 38293 ft 463 kts 271°
2026-05-08 19:20 54.02531 -17.10643 38297 ft 464 kts 271°
2026-05-08 19:20 54.02560 -17.20583 38300 ft 463 kts 272°
2026-05-08 19:21 54.02580 -17.30597 38302 ft 463 kts 272°
2026-05-08 19:21 54.02591 -17.40595 38308 ft 464 kts 272°
2026-05-08 19:22 54.02595 -17.50499 38304 ft 465 kts 272°
2026-05-08 19:22 54.02591 -17.60476 38312 ft 465 kts 272°
2026-05-08 19:23 54.02577 -17.70484 38313 ft 465 kts 271°
2026-05-08 19:23 54.02557 -17.80443 38316 ft 466 kts 271°
2026-05-08 19:24 54.02527 -17.90579 38320 ft 467 kts 271°
2026-05-08 19:24 54.02489 -18.00593 38321 ft 467 kts 271°
2026-05-08 19:25 54.02442 -18.10683 38319 ft 467 kts 271°
2026-05-08 19:25 54.02387 -18.20693 38321 ft 467 kts 272°
2026-05-08 19:26 54.02324 -18.30772 38315 ft 468 kts 272°
2026-05-08 19:26 54.02252 -18.40867 38327 ft 468 kts 272°
2026-05-08 19:27 54.02172 -18.51009 38331 ft 468 kts 272°
2026-05-08 19:27 54.02082 -18.61275 38335 ft 468 kts 272°
2026-05-08 19:28 54.01982 -18.71541 38335 ft 469 kts 271°
2026-05-08 19:28 54.01873 -18.81855 38339 ft 470 kts 271°
2026-05-08 19:29 54.01757 -18.92173 38331 ft 471 kts 271°
2026-05-08 19:29 54.01630 -19.02465 38335 ft 471 kts 271°
2026-05-08 19:30 54.01495 -19.12776 38335 ft 472 kts 271°
2026-05-08 19:30 54.01350 -19.23132 38337 ft 472 kts 271°
2026-05-08 19:31 54.01200 -19.33419 38346 ft 471 kts 271°
2026-05-08 19:31 54.01037 -19.43798 38353 ft 471 kts 271°
2026-05-08 19:32 54.00867 -19.54094 38350 ft 471 kts 272°
2026-05-08 19:32 54.00688 -19.64402 38348 ft 472 kts 271°
2026-05-08 19:33 54.00498 -19.74767 38344 ft 473 kts 271°
2026-05-08 19:33 54.00299 -19.85142 38352 ft 474 kts 271°
2026-05-08 19:34 54.00093 -19.95573 38350 ft 474 kts 271°
2026-05-08 19:34 53.99728 -20.06046 38358 ft 476 kts 266°
2026-05-08 19:35 53.99067 -20.16444 38360 ft 476 kts 268°
2026-05-08 19:35 53.98455 -20.26814 38352 ft 476 kts 268°
2026-05-08 19:36 53.97839 -20.37184 38353 ft 477 kts 268°
2026-05-08 19:36 53.97215 -20.47569 38361 ft 477 kts 268°
2026-05-08 19:37 53.96577 -20.57998 38370 ft 478 kts 268°
2026-05-08 19:37 53.95932 -20.68437 38367 ft 477 kts 267°
2026-05-08 19:38 53.95277 -20.78873 38370 ft 478 kts 267°
2026-05-08 19:38 53.94613 -20.89300 38365 ft 478 kts 267°
2026-05-08 19:39 53.93944 -20.99659 38359 ft 478 kts 268°
2026-05-08 19:39 53.93258 -21.10153 38361 ft 478 kts 268°
2026-05-08 19:40 53.92564 -21.20573 38373 ft 478 kts 268°
2026-05-08 19:40 53.91861 -21.31034 38377 ft 480 kts 268°
2026-05-08 19:41 53.91154 -21.41421 38382 ft 480 kts 268°
2026-05-08 19:41 53.90434 -21.51868 38380 ft 479 kts 268°
2026-05-08 19:42 53.89705 -21.62277 38374 ft 479 kts 268°
2026-05-08 19:42 53.88965 -21.72743 38369 ft 479 kts 267°
2026-05-08 19:43 53.88215 -21.83208 38371 ft 479 kts 267°
2026-05-08 19:43 53.87458 -21.93616 38370 ft 481 kts 267°
2026-05-08 19:44 53.86692 -22.04068 38385 ft 481 kts 267°
2026-05-08 19:44 53.85909 -22.14585 38384 ft 481 kts 268°
2026-05-08 19:45 53.85126 -22.24989 38399 ft 479 kts 268°
2026-05-08 19:45 53.84327 -22.35475 38401 ft 479 kts 268°
2026-05-08 19:46 53.83523 -22.45911 38397 ft 480 kts 268°
2026-05-08 19:46 53.82292 -22.61645 38403 ft 481 kts 268°
2026-05-08 19:47 53.81460 -22.72143 38396 ft 482 kts 267°
2026-05-08 19:47 53.80619 -22.82625 38395 ft 483 kts 267°
2026-05-08 19:48 53.79764 -22.93168 38406 ft 481 kts 267°
2026-05-08 19:48 53.78902 -23.03675 38419 ft 482 kts 267°
2026-05-08 19:49 53.78033 -23.14127 38410 ft 483 kts 267°
2026-05-08 19:49 53.77156 -23.24585 38405 ft 483 kts 268°
2026-05-08 19:50 53.76271 -23.35051 38412 ft 482 kts 268°
2026-05-08 19:50 53.75374 -23.45504 38411 ft 482 kts 268°
2026-05-08 19:51 53.74473 -23.55926 38417 ft 482 kts 268°
2026-05-08 19:51 53.73559 -23.66367 38428 ft 483 kts 266°
2026-05-08 19:52 53.72631 -23.76861 38430 ft 483 kts 267°
2026-05-08 19:52 53.71703 -23.87254 38424 ft 483 kts 267°
2026-05-08 19:53 53.70757 -23.97753 38437 ft 482 kts 267°
2026-05-08 19:53 53.69808 -24.08156 38443 ft 483 kts 267°
2026-05-08 19:54 53.68850 -24.18579 38428 ft 482 kts 267°
2026-05-08 19:54 53.67878 -24.29036 38428 ft 483 kts 268°
2026-05-08 19:55 53.66905 -24.39384 38445 ft 483 kts 267°
2026-05-08 19:55 53.65914 -24.49835 38439 ft 486 kts 268°
2026-05-08 19:56 53.64910 -24.60340 38432 ft 485 kts 268°
2026-05-08 19:56 53.63906 -24.70756 38439 ft 484 kts 267°
2026-05-08 19:57 53.62879 -24.81258 38446 ft 486 kts 267°
2026-05-08 19:57 53.61846 -24.91773 38447 ft 485 kts 267°
2026-05-08 19:58 53.60811 -25.02186 38440 ft 485 kts 267°
2026-05-08 19:58 53.59759 -25.12681 38436 ft 485 kts 267°
2026-05-08 19:59 53.58705 -25.23096 38440 ft 484 kts 268°
2026-05-08 19:59 53.57641 -25.33509 38436 ft 484 kts 267°
2026-05-08 20:00 53.56568 -25.43923 38439 ft 485 kts 267°
2026-05-08 20:00 53.55479 -25.54385 38444 ft 487 kts 268°
2026-05-08 20:01 53.54384 -25.64826 38453 ft 487 kts 268°
2026-05-08 20:01 53.53276 -25.75301 38454 ft 487 kts 267°
2026-05-08 20:02 53.52163 -25.85734 38452 ft 488 kts 267°
2026-05-08 20:02 53.51031 -25.96253 38456 ft 487 kts 267°
2026-05-08 20:03 53.49891 -26.06746 38459 ft 487 kts 267°
2026-05-08 20:03 53.48748 -26.17181 38459 ft 487 kts 267°
2026-05-08 20:04 53.47597 -26.27587 38460 ft 487 kts 267°
2026-05-08 20:04 53.46439 -26.37994 38464 ft 486 kts 267°
2026-05-08 20:05 53.45278 -26.48337 38464 ft 485 kts 267°
2026-05-08 20:05 53.44104 -26.58704 38469 ft 485 kts 267°
2026-05-08 20:06 53.42912 -26.69136 38463 ft 486 kts 266°
2026-05-08 20:06 53.41716 -26.79518 38469 ft 487 kts 266°
2026-05-08 20:07 53.40512 -26.89894 38464 ft 487 kts 266°
2026-05-08 20:07 53.39290 -27.00339 38475 ft 486 kts 267°
2026-05-08 20:08 53.38083 -27.10593 38464 ft 484 kts 267°
2026-05-08 20:08 53.36872 -27.20772 38476 ft 484 kts 267°
2026-05-08 20:09 53.35641 -27.31049 38480 ft 485 kts 267°
2026-05-08 20:09 53.34409 -27.41261 38467 ft 483 kts 267°
2026-05-08 20:10 53.33169 -27.51462 38476 ft 482 kts 267°
2026-05-08 20:10 53.31921 -27.61630 38477 ft 483 kts 267°
2026-05-08 20:11 53.30662 -27.71849 38473 ft 482 kts 266°
2026-05-08 20:11 53.29391 -27.82049 38475 ft 483 kts 267°
2026-05-08 20:12 53.28109 -27.92283 38497 ft 483 kts 266°
2026-05-08 20:12 53.26818 -28.02521 38475 ft 481 kts 267°
2026-05-08 20:13 53.25534 -28.12609 38500 ft 480 kts 267°
2026-05-08 20:13 53.24240 -28.22715 38496 ft 479 kts 267°
2026-05-08 20:14 53.22930 -28.32850 38481 ft 480 kts 267°
2026-05-08 20:14 53.21616 -28.42975 38476 ft 481 kts 267°
2026-05-08 20:15 53.20293 -28.53085 38494 ft 480 kts 268°
2026-05-08 20:15 53.18957 -28.63229 38503 ft 481 kts 268°
2026-05-08 20:16 53.17602 -28.73427 38473 ft 480 kts 267°
2026-05-08 20:16 53.16249 -28.83552 38488 ft 480 kts 267°
2026-05-08 20:17 53.14885 -28.93673 38504 ft 479 kts 268°
2026-05-08 20:17 53.13506 -29.03856 38506 ft 479 kts 268°
2026-05-08 20:18 53.12127 -29.13965 38493 ft 480 kts 267°
2026-05-08 20:18 53.10714 -29.24236 38510 ft 483 kts 268°
2026-05-08 20:19 53.09287 -29.34557 38526 ft 481 kts 268°
2026-05-08 20:19 53.07861 -29.44809 38524 ft 481 kts 268°
2026-05-08 20:20 53.06427 -29.55022 38497 ft 480 kts 268°
2026-05-08 20:20 53.04985 -29.65234 38505 ft 480 kts 267°
2026-05-08 20:21 53.03525 -29.75495 38512 ft 483 kts 266°
2026-05-08 20:21 53.02058 -29.85740 38517 ft 484 kts 267°
2026-05-08 20:22 53.00584 -29.95974 38513 ft 482 kts 267°
2026-05-08 20:22 52.99371 -30.04635 38508 ft 482 kts 267°
2026-05-08 20:23 52.97503 -30.16581 38510 ft 485 kts 266°
2026-05-08 20:23 52.95941 -30.26814 38511 ft 484 kts 267°
2026-05-08 20:24 52.94382 -30.36989 38517 ft 483 kts 267°
2026-05-08 20:24 52.92814 -30.47164 38517 ft 483 kts 267°
2026-05-08 20:25 52.91221 -30.57426 38521 ft 484 kts 267°
2026-05-08 20:25 52.89630 -30.67635 38504 ft 484 kts 266°
2026-05-08 20:26 52.88032 -30.77799 38501 ft 483 kts 266°
2026-05-08 20:26 52.86425 -30.87967 38510 ft 485 kts 266°
2026-05-08 20:27 52.84813 -30.98108 38501 ft 484 kts 266°
2026-05-08 20:27 52.83185 -31.08286 38496 ft 484 kts 266°
2026-05-08 20:28 52.81558 -31.18404 38492 ft 484 kts 266°
2026-05-08 20:28 52.79911 -31.28570 38494 ft 484 kts 266°
2026-05-08 20:29 52.78252 -31.38755 38493 ft 485 kts 266°
2026-05-08 20:29 52.76596 -31.48858 38497 ft 485 kts 267°
2026-05-08 20:30 52.74920 -31.59034 38501 ft 488 kts 266°
2026-05-08 20:30 52.73235 -31.69189 38505 ft 487 kts 266°
2026-05-08 20:31 52.71549 -31.79310 38507 ft 485 kts 265°
2026-05-08 20:31 52.69845 -31.89455 38511 ft 487 kts 266°
2026-05-08 20:32 52.68125 -31.99637 38519 ft 488 kts 266°
2026-05-08 20:32 52.66413 -32.09738 38512 ft 485 kts 266°
2026-05-08 20:33 52.64694 -32.19813 38508 ft 486 kts 266°
2026-05-08 20:33 52.62965 -32.29863 38513 ft 488 kts 266°
2026-05-08 20:34 52.61223 -32.39957 38511 ft 490 kts 266°
2026-05-08 20:35 52.58578 -32.55174 38509 ft 488 kts 266°
2026-05-08 20:35 52.56824 -32.65184 38511 ft 488 kts 265°
2026-05-08 20:35 52.55942 -32.70196 38685 ft 490 kts 265°
2026-05-08 20:36 52.55033 -32.75350 38422 ft 494 kts 265°
2026-05-08 20:36 52.54139 -32.80379 38556 ft 486 kts 265°
2026-05-08 20:36 52.53243 -32.85456 38509 ft 487 kts 264°
2026-05-08 20:37 52.51467 -32.95412 38532 ft 488 kts 265°
2026-05-08 20:37 52.49666 -33.05480 38520 ft 487 kts 264°
2026-05-08 20:38 52.47862 -33.15483 38516 ft 488 kts 264°
2026-05-08 20:38 52.46039 -33.25545 38523 ft 488 kts 265°
2026-05-08 20:39 52.44230 -33.35487 38516 ft 485 kts 264°
2026-05-08 20:39 52.42392 -33.45522 38526 ft 486 kts 264°
2026-05-08 20:40 52.40569 -33.55413 38516 ft 482 kts 264°
2026-05-08 20:40 52.38752 -33.65243 38513 ft 483 kts 263°
2026-05-08 20:41 52.36902 -33.75183 38510 ft 486 kts 263°
2026-05-08 20:41 52.35047 -33.85090 38513 ft 483 kts 263°
2026-05-08 20:42 52.33185 -33.94984 38517 ft 483 kts 263°
2026-05-08 20:42 52.31325 -34.04828 38512 ft 483 kts 263°
2026-05-08 20:43 52.29441 -34.14740 38518 ft 485 kts 263°
2026-05-08 20:43 52.27558 -34.24591 38515 ft 484 kts 263°
2026-05-08 20:44 52.25687 -34.34350 38508 ft 482 kts 263°
2026-05-08 20:44 52.23802 -34.44109 38512 ft 483 kts 263°
2026-05-08 20:45 52.21901 -34.53907 38514 ft 483 kts 263°
2026-05-08 20:45 52.19996 -34.63663 38521 ft 485 kts 263°
2026-05-08 20:46 52.18067 -34.73504 38518 ft 486 kts 262°
2026-05-08 20:46 52.16146 -34.83266 38512 ft 487 kts 262°
2026-05-08 20:47 52.14190 -34.93137 38514 ft 489 kts 262°
2026-05-08 20:47 52.12253 -35.02873 38508 ft 487 kts 262°
2026-05-08 20:48 52.10312 -35.12582 38505 ft 485 kts 262°
2026-05-08 20:48 52.08363 -35.22282 38502 ft 485 kts 261°
2026-05-08 20:49 52.06416 -35.31905 38505 ft 487 kts 261°
2026-05-08 20:49 52.04478 -35.41470 38499 ft 488 kts 261°
2026-05-08 20:50 52.02544 -35.50941 38499 ft 487 kts 261°
2026-05-08 20:50 52.00627 -35.60296 38496 ft 487 kts 261°
2026-05-08 20:51 51.98696 -35.69666 38499 ft 488 kts 259°
2026-05-08 20:51 51.96748 -35.79087 38495 ft 488 kts 259°
2026-05-08 20:52 51.94845 -35.88247 38481 ft 487 kts 259°
2026-05-08 20:52 51.92894 -35.97591 38474 ft 488 kts 259°
2026-05-08 20:53 51.90964 -36.06783 38474 ft 489 kts 259°
2026-05-08 20:53 51.89016 -36.16034 38448 ft 486 kts 259°
2026-05-08 20:54 51.87054 -36.25293 38453 ft 484 kts 259°
2026-05-08 20:54 51.85086 -36.34540 38453 ft 486 kts 259°
2026-05-08 20:55 51.83110 -36.43792 38458 ft 486 kts 259°
2026-05-08 20:55 51.81136 -36.52989 38462 ft 485 kts 259°
2026-05-08 20:56 51.79158 -36.62162 38462 ft 482 kts 259°
2026-05-08 20:56 51.77204 -36.71187 38464 ft 483 kts 258°
2026-05-08 20:57 51.75229 -36.80267 38457 ft 484 kts 258°
2026-05-08 20:57 51.73230 -36.89418 38445 ft 483 kts 258°
2026-05-08 20:58 51.71215 -36.98599 38436 ft 482 kts 258°
2026-05-08 20:58 51.69178 -37.07839 38436 ft 482 kts 258°
2026-05-08 20:59 51.67123 -37.17123 38432 ft 480 kts 258°
2026-05-08 20:59 51.65066 -37.26375 38432 ft 478 kts 258°
2026-05-08 21:00 51.62987 -37.35672 38433 ft 477 kts 258°
2026-05-08 21:00 51.60931 -37.44844 38431 ft 476 kts 258°
2026-05-08 21:01 51.58854 -37.54060 38440 ft 476 kts 258°
2026-05-08 21:01 51.56770 -37.63267 38436 ft 476 kts 258°
2026-05-08 21:02 51.54686 -37.72425 38425 ft 476 kts 257°
2026-05-08 21:02 51.52592 -37.81601 38411 ft 475 kts 257°
2026-05-08 21:03 51.50470 -37.90849 38422 ft 474 kts 257°
2026-05-08 21:03 51.48326 -38.00167 38423 ft 471 kts 257°
2026-05-08 21:04 51.46218 -38.09275 38419 ft 470 kts 256°
2026-05-08 21:04 51.44108 -38.18353 38418 ft 470 kts 256°
2026-05-08 21:05 51.41956 -38.27583 38413 ft 469 kts 256°
2026-05-08 21:05 51.39804 -38.36767 38415 ft 468 kts 256°
2026-05-08 21:06 51.37636 -38.45971 38410 ft 469 kts 256°
2026-05-08 21:06 51.35480 -38.55094 38401 ft 469 kts 256°
2026-05-08 21:07 51.33300 -38.64278 38394 ft 469 kts 256°
2026-05-08 21:07 51.31126 -38.73401 38389 ft 468 kts 255°
2026-05-08 21:08 51.28918 -38.82629 38390 ft 467 kts 255°
2026-05-08 21:08 51.26711 -38.91813 38398 ft 467 kts 255°
2026-05-08 21:09 51.24485 -39.01039 38402 ft 465 kts 255°
2026-05-08 21:09 51.22282 -39.10123 38395 ft 464 kts 254°
2026-05-08 21:10 51.20084 -39.19150 38399 ft 465 kts 254°
2026-05-08 21:10 51.17891 -39.28130 38377 ft 463 kts 255°
2026-05-08 21:11 51.15683 -39.37130 38367 ft 461 kts 254°
2026-05-08 21:11 51.13498 -39.45995 38357 ft 459 kts 254°
2026-05-08 21:12 51.11298 -39.54882 38358 ft 460 kts 254°
2026-05-08 21:12 51.09085 -39.63791 38355 ft 460 kts 254°
2026-05-08 21:13 51.06866 -39.72694 38351 ft 460 kts 253°
2026-05-08 21:13 51.04647 -39.81553 38350 ft 459 kts 253°
2026-05-08 21:14 51.02419 -39.90425 38343 ft 458 kts 253°
2026-05-08 21:14 51.00207 -39.99184 38339 ft 457 kts 252°
2026-05-08 21:15 50.98645 -40.08465 38367 ft 450 kts 263°
2026-05-08 21:15 50.97341 -40.17559 38338 ft 452 kts 261°
2026-05-08 21:16 50.95979 -40.26580 38330 ft 452 kts 261°
2026-05-08 21:16 50.94591 -40.35673 38324 ft 452 kts 261°
2026-05-08 21:17 50.93204 -40.44688 38322 ft 451 kts 261°
2026-05-08 21:17 50.91804 -40.53739 38318 ft 451 kts 261°
2026-05-08 21:18 50.90405 -40.62730 38314 ft 452 kts 260°
2026-05-08 21:18 50.88983 -40.71810 38307 ft 452 kts 259°
2026-05-08 21:19 50.87569 -40.80804 38309 ft 452 kts 259°
2026-05-08 21:19 50.86140 -40.89836 38304 ft 452 kts 259°
2026-05-08 21:20 50.84704 -40.98876 38299 ft 452 kts 259°
2026-05-08 21:20 50.83266 -41.07864 38284 ft 451 kts 259°
2026-05-08 21:21 50.81811 -41.16916 38290 ft 451 kts 259°
2026-05-08 21:21 50.80355 -41.25920 38285 ft 452 kts 259°
2026-05-08 21:22 50.78892 -41.34921 38282 ft 451 kts 259°
2026-05-08 21:22 50.77434 -41.43851 38278 ft 450 kts 259°
2026-05-08 21:23 50.75964 -41.52798 38270 ft 450 kts 259°
2026-05-08 21:23 50.74498 -41.61676 38266 ft 449 kts 259°
2026-05-08 21:24 50.73023 -41.70561 38278 ft 449 kts 258°
2026-05-08 21:24 50.71536 -41.79478 38257 ft 449 kts 258°
2026-05-08 21:25 50.70056 -41.88306 38253 ft 448 kts 258°
2026-05-08 21:25 50.68582 -41.97046 38252 ft 447 kts 258°
2026-05-08 21:26 50.67096 -42.05822 38252 ft 447 kts 258°
2026-05-08 21:26 50.65614 -42.14522 38248 ft 448 kts 257°
2026-05-08 21:27 50.64116 -42.23273 38246 ft 447 kts 258°
2026-05-08 21:27 50.62624 -42.31953 38242 ft 447 kts 257°
2026-05-08 21:28 50.61126 -42.40617 38239 ft 446 kts 257°
2026-05-08 21:28 50.59617 -42.49309 38236 ft 446 kts 257°
2026-05-08 21:29 50.58096 -42.58021 38243 ft 446 kts 257°
2026-05-08 21:29 50.56582 -42.66651 38236 ft 446 kts 256°
2026-05-08 21:30 50.55072 -42.75222 38229 ft 445 kts 256°
2026-05-08 21:30 50.53572 -42.83695 38223 ft 445 kts 256°
2026-05-08 21:31 50.52086 -42.92040 38226 ft 445 kts 256°
2026-05-08 21:31 50.50613 -43.00283 38230 ft 445 kts 256°
2026-05-08 21:32 50.49143 -43.08471 38217 ft 445 kts 256°
2026-05-08 21:32 50.47669 -43.16652 38207 ft 443 kts 256°
2026-05-08 21:33 50.46182 -43.24859 38202 ft 441 kts 256°
2026-05-08 21:33 50.44685 -43.33071 38208 ft 441 kts 256°
2026-05-08 21:34 50.43164 -43.41398 38196 ft 442 kts 256°
2026-05-08 21:34 50.41639 -43.49699 38181 ft 442 kts 256°
2026-05-08 21:35 50.40118 -43.57948 38185 ft 440 kts 256°
2026-05-08 21:35 50.38628 -43.65982 38183 ft 440 kts 255°
2026-05-08 21:36 50.37100 -43.74189 38180 ft 441 kts 255°
2026-05-08 21:36 50.35597 -43.82230 38179 ft 440 kts 255°
2026-05-08 21:37 50.34047 -43.90490 38171 ft 440 kts 255°
2026-05-08 21:37 50.32463 -43.98887 38171 ft 440 kts 254°
2026-05-08 21:38 50.30869 -44.07307 38158 ft 439 kts 254°
2026-05-08 21:38 50.29276 -44.15674 38159 ft 437 kts 254°
2026-05-08 21:39 50.27705 -44.23893 38155 ft 437 kts 254°
2026-05-08 21:39 50.26131 -44.32095 38145 ft 437 kts 254°
2026-05-08 21:40 50.24551 -44.40290 38143 ft 436 kts 254°
2026-05-08 21:40 50.22971 -44.48452 38146 ft 435 kts 254°
2026-05-08 21:41 50.20594 -44.60657 38124 ft 436 kts 253°
2026-05-08 21:41 50.18995 -44.68831 38127 ft 435 kts 253°
2026-05-08 21:42 50.17398 -44.76961 38116 ft 434 kts 252°
2026-05-08 21:42 50.15776 -44.85179 38110 ft 433 kts 252°
2026-05-08 21:43 50.14164 -44.93312 38112 ft 432 kts 252°
2026-05-08 21:43 50.12549 -45.01419 38107 ft 433 kts 252°
2026-05-08 21:44 50.10919 -45.09579 38111 ft 432 kts 252°
2026-05-08 21:44 50.09271 -45.17796 38095 ft 432 kts 252°
2026-05-08 21:45 50.07629 -45.25936 38081 ft 432 kts 252°
2026-05-08 21:45 50.05985 -45.34056 38082 ft 432 kts 252°
2026-05-08 21:46 50.04320 -45.42251 38075 ft 433 kts 252°
2026-05-08 21:46 50.02666 -45.50364 38074 ft 432 kts 252°
2026-05-08 21:47 50.00996 -45.58516 38064 ft 432 kts 252°
2026-05-08 21:47 49.99333 -45.66594 38055 ft 432 kts 251°
2026-05-08 21:48 49.97660 -45.74692 38056 ft 432 kts 250°
2026-05-08 21:48 49.95982 -45.82783 38051 ft 432 kts 251°
2026-05-08 21:49 49.94311 -45.90807 38037 ft 431 kts 250°
2026-05-08 21:49 49.92616 -45.98915 38044 ft 433 kts 250°
2026-05-08 21:50 49.90926 -46.06960 38043 ft 433 kts 250°
2026-05-08 21:50 49.89212 -46.15095 38053 ft 433 kts 250°
2026-05-08 21:51 49.87512 -46.23130 38039 ft 432 kts 250°
2026-05-08 21:51 49.85803 -46.31171 38031 ft 432 kts 250°
2026-05-08 21:52 49.84080 -46.39251 38028 ft 432 kts 250°
2026-05-08 21:52 49.82354 -46.47308 38014 ft 432 kts 249°
2026-05-08 21:53 49.80650 -46.55239 37996 ft 431 kts 250°
2026-05-08 21:53 49.78919 -46.63255 38001 ft 430 kts 250°
2026-05-08 21:54 49.77188 -46.71242 37998 ft 431 kts 249°
2026-05-08 21:54 49.75442 -46.79273 37997 ft 431 kts 249°
2026-05-08 21:55 49.73703 -46.87238 37975 ft 430 kts 249°
2026-05-08 21:56 49.71069 -46.99242 37983 ft 430 kts 249°
2026-05-08 21:56 49.69326 -47.07155 37968 ft 429 kts 248°
2026-05-08 21:57 49.67570 -47.15085 37958 ft 428 kts 248°
2026-05-08 21:57 49.65810 -47.22998 37964 ft 428 kts 248°
2026-05-08 21:58 49.64058 -47.30857 37952 ft 428 kts 248°
2026-05-08 21:58 49.62299 -47.38713 37947 ft 428 kts 248°
2026-05-08 21:59 49.60524 -47.46621 37958 ft 428 kts 248°
2026-05-08 21:59 49.58761 -47.54428 37941 ft 428 kts 248°
2026-05-08 22:00 49.56994 -47.62248 37937 ft 427 kts 248°
2026-05-08 22:00 49.55193 -47.70163 37930 ft 427 kts 247°
2026-05-08 22:01 49.53419 -47.77951 37941 ft 427 kts 246°
2026-05-08 22:01 49.51623 -47.85796 37920 ft 426 kts 247°
2026-05-08 22:02 49.49813 -47.93676 37922 ft 426 kts 246°
2026-05-08 22:02 49.48018 -48.01463 37918 ft 426 kts 246°
2026-05-08 22:03 49.46220 -48.09228 37918 ft 425 kts 246°
2026-05-08 22:03 49.44408 -48.17029 37902 ft 425 kts 246°
2026-05-08 22:04 49.42606 -48.24759 37899 ft 424 kts 246°
2026-05-08 22:04 49.40789 -48.32531 37907 ft 423 kts 246°
2026-05-08 22:05 49.38981 -48.40231 37897 ft 424 kts 246°
2026-05-08 22:05 49.37167 -48.47930 37895 ft 423 kts 246°
2026-05-08 22:06 49.35338 -48.55658 37900 ft 422 kts 246°
2026-05-08 22:06 49.33509 -48.63368 37895 ft 422 kts 246°
2026-05-08 22:07 49.31683 -48.71033 37885 ft 422 kts 245°
2026-05-08 22:07 49.29847 -48.78714 37885 ft 421 kts 245°
2026-05-08 22:08 49.27996 -48.86430 37878 ft 422 kts 245°
2026-05-08 22:08 49.26164 -48.94047 37860 ft 421 kts 245°
2026-05-08 22:09 49.24332 -49.01637 37862 ft 420 kts 245°
2026-05-08 22:09 49.22481 -49.09266 37853 ft 421 kts 245°
2026-05-08 22:10 49.20627 -49.16900 37849 ft 422 kts 245°
2026-05-08 22:10 49.18755 -49.24569 37848 ft 421 kts 245°
2026-05-08 22:11 49.16900 -49.32149 37839 ft 420 kts 244°
2026-05-08 22:11 49.15039 -49.39717 37835 ft 420 kts 244°
2026-05-08 22:12 49.13149 -49.47392 37836 ft 422 kts 244°
2026-05-08 22:12 49.11272 -49.54977 37841 ft 422 kts 244°
2026-05-08 22:13 49.09393 -49.62535 37831 ft 421 kts 244°
2026-05-08 22:13 49.07516 -49.70083 37824 ft 421 kts 243°
2026-05-08 22:14 49.05644 -49.77563 37828 ft 422 kts 244°
2026-05-08 22:14 49.03750 -49.85126 37819 ft 421 kts 243°
2026-05-08 22:15 49.01846 -49.92696 37797 ft 422 kts 243°
2026-05-08 22:15 48.99918 -50.00288 37820 ft 422 kts 243°
2026-05-08 22:16 48.98111 -50.07877 37818 ft 423 kts 244°
2026-05-08 22:16 48.96287 -50.15483 37802 ft 424 kts 244°
2026-05-08 22:17 48.94453 -50.23100 37801 ft 423 kts 244°
2026-05-08 22:17 48.92610 -50.30719 37796 ft 422 kts 243°
2026-05-08 22:18 48.90770 -50.38296 37798 ft 422 kts 243°
2026-05-08 22:18 48.88916 -50.45913 37806 ft 422 kts 243°
2026-05-08 22:19 48.87062 -50.53493 37808 ft 424 kts 243°
2026-05-08 22:19 48.85201 -50.61098 37792 ft 422 kts 243°
2026-05-08 22:20 48.83326 -50.68713 37799 ft 422 kts 242°
2026-05-08 22:20 48.81473 -50.76211 37792 ft 421 kts 242°
2026-05-08 22:21 48.79601 -50.83771 37779 ft 420 kts 243°
2026-05-08 22:21 48.77709 -50.91376 37774 ft 421 kts 243°
2026-05-08 22:22 48.75816 -50.98972 37767 ft 421 kts 243°
2026-05-08 22:22 48.73935 -51.06485 37756 ft 420 kts 243°
2026-05-08 22:23 48.72050 -51.13997 37761 ft 420 kts 243°
2026-05-08 22:23 48.70160 -51.21489 37766 ft 420 kts 243°
2026-05-08 22:24 48.68289 -51.28899 37750 ft 419 kts 243°
2026-05-08 22:24 48.66416 -51.36277 37753 ft 419 kts 243°
2026-05-08 22:25 48.64530 -51.43691 37741 ft 420 kts 243°
2026-05-08 22:25 48.62667 -51.50994 37737 ft 419 kts 242°
2026-05-08 22:26 48.60833 -51.58153 37734 ft 419 kts 242°
2026-05-08 22:26 48.58993 -51.65315 37730 ft 418 kts 242°
2026-05-08 22:27 48.57175 -51.72367 37729 ft 417 kts 242°
2026-05-08 22:27 48.55353 -51.79418 37724 ft 416 kts 242°
2026-05-08 22:28 48.53505 -51.86547 37712 ft 417 kts 241°
2026-05-08 22:28 48.51655 -51.93652 37724 ft 417 kts 241°
2026-05-08 22:29 48.49828 -52.00687 37706 ft 418 kts 242°
2026-05-08 22:29 48.48071 -52.08072 37684 ft 419 kts 243°
2026-05-08 22:30 48.46264 -52.15604 37694 ft 419 kts 243°
2026-05-08 22:30 48.44484 -52.23000 37669 ft 419 kts 243°
2026-05-08 22:31 48.42683 -52.30456 37689 ft 417 kts 243°
2026-05-08 22:31 48.40906 -52.37791 37687 ft 417 kts 243°
2026-05-08 22:32 48.39157 -52.44971 37678 ft 418 kts 242°
2026-05-08 22:32 48.37426 -52.52079 37670 ft 418 kts 242°
2026-05-08 22:33 48.35675 -52.59233 37658 ft 418 kts 242°
2026-05-08 22:33 48.33949 -52.66268 37651 ft 417 kts 241°
2026-05-08 22:34 48.32135 -52.73634 37650 ft 416 kts 241°
2026-05-08 22:34 48.30315 -52.80996 37644 ft 417 kts 241°
2026-05-08 22:35 48.28505 -52.88297 37645 ft 417 kts 241°
2026-05-08 22:35 48.26703 -52.95543 37636 ft 417 kts 241°
2026-05-08 22:36 48.24898 -53.02771 37633 ft 417 kts 241°
2026-05-08 22:36 48.23055 -53.10135 37624 ft 416 kts 240°
2026-05-08 22:37 48.21273 -53.17233 37630 ft 416 kts 240°
2026-05-08 22:37 48.19484 -53.24326 37615 ft 418 kts 240°
2026-05-08 22:38 48.17707 -53.31361 37615 ft 418 kts 240°
2026-05-08 22:38 48.15881 -53.38567 37606 ft 417 kts 240°
2026-05-08 22:39 48.14055 -53.45750 37595 ft 416 kts 240°
2026-05-08 22:39 48.12224 -53.52922 37612 ft 416 kts 240°
2026-05-08 22:40 48.10321 -53.60366 37599 ft 414 kts 241°
2026-05-08 22:40 48.08517 -53.67386 37595 ft 414 kts 239°
2026-05-08 22:41 48.06674 -53.74538 37579 ft 415 kts 240°
2026-05-08 22:41 48.04865 -53.81536 37599 ft 414 kts 240°
2026-05-08 22:42 48.03083 -53.88417 37590 ft 414 kts 240°
2026-05-08 22:42 48.01316 -53.95218 37580 ft 414 kts 239°
2026-05-08 22:43 47.99518 -54.02115 37573 ft 413 kts 239°
2026-05-08 22:43 47.97721 -54.08984 37568 ft 413 kts 239°
2026-05-08 22:44 47.95927 -54.15821 37566 ft 415 kts 239°
2026-05-08 22:44 47.95034 -54.19220 37307 ft 414 kts 240°
2026-05-08 22:44 47.94151 -54.22578 37645 ft 409 kts 239°
2026-05-08 22:45 47.92343 -54.29424 37502 ft 415 kts 239°
2026-05-08 22:45 47.91450 -54.32793 37640 ft 415 kts 239°
2026-05-08 22:45 47.90509 -54.36351 37508 ft 419 kts 239°
2026-05-08 22:46 47.88672 -54.43293 37601 ft 416 kts 239°
2026-05-08 22:46 47.86842 -54.50169 37578 ft 415 kts 239°
2026-05-08 22:47 47.84975 -54.57163 37574 ft 415 kts 239°
2026-05-08 22:47 47.83085 -54.64218 37574 ft 416 kts 239°
2026-05-08 22:48 47.81193 -54.71272 37574 ft 413 kts 238°
2026-05-08 22:48 47.79340 -54.78150 37581 ft 413 kts 238°
2026-05-08 22:49 47.77494 -54.84972 37573 ft 414 kts 238°
2026-05-08 22:49 47.74705 -54.95278 37571 ft 412 kts 238°
2026-05-08 22:50 47.72842 -55.02108 37567 ft 414 kts 238°
2026-05-08 22:50 47.70940 -55.09079 37564 ft 413 kts 238°
2026-05-08 22:51 47.69066 -55.15933 37572 ft 412 kts 238°
2026-05-08 22:51 47.67144 -55.22934 37575 ft 411 kts 238°
2026-05-08 22:52 47.65215 -55.29933 37576 ft 410 kts 237°
2026-05-08 22:52 47.63309 -55.36830 37569 ft 412 kts 238°
2026-05-08 22:53 47.61419 -55.43674 37571 ft 411 kts 237°
2026-05-08 22:53 47.59459 -55.50714 37566 ft 413 kts 238°
2026-05-08 22:54 47.57511 -55.57703 37581 ft 413 kts 238°
2026-05-08 22:54 47.55600 -55.64564 37572 ft 409 kts 238°
2026-05-08 22:55 47.53675 -55.71429 37563 ft 410 kts 237°
2026-05-08 22:55 47.51761 -55.78238 37562 ft 411 kts 237°
2026-05-08 22:56 47.49846 -55.85030 37591 ft 412 kts 237°
2026-05-08 22:56 47.47910 -55.91882 37565 ft 411 kts 237°
2026-05-08 22:57 47.45988 -55.98679 37575 ft 408 kts 237°
2026-05-08 22:57 47.44063 -56.05432 37576 ft 409 kts 237°
2026-05-08 22:58 47.42115 -56.12270 37577 ft 411 kts 238°
2026-05-08 22:58 47.40173 -56.19077 37591 ft 411 kts 237°
2026-05-08 22:59 47.38218 -56.25894 37583 ft 411 kts 237°
2026-05-08 22:59 47.36247 -56.32745 37596 ft 414 kts 237°
2026-05-08 23:00 47.34279 -56.39587 37592 ft 413 kts 237°
2026-05-08 23:00 47.32283 -56.46489 37595 ft 413 kts 237°
2026-05-08 23:01 47.30311 -56.53300 37592 ft 412 kts 238°
2026-05-08 23:01 47.28281 -56.60273 37595 ft 414 kts 237°
2026-05-08 23:02 47.26248 -56.67250 37594 ft 416 kts 237°
2026-05-08 23:02 47.24235 -56.74141 37597 ft 414 kts 237°
2026-05-08 23:03 47.22208 -56.81068 37584 ft 413 kts 237°
2026-05-08 23:03 47.20169 -56.87987 37603 ft 415 kts 237°
2026-05-08 23:04 47.18115 -56.94967 37590 ft 414 kts 238°
2026-05-08 23:04 47.16078 -57.01862 37606 ft 414 kts 237°
2026-05-08 23:05 47.14023 -57.08779 37609 ft 416 kts 238°
2026-05-08 23:05 47.11961 -57.15724 37609 ft 415 kts 238°
2026-05-08 23:06 47.09865 -57.22749 37613 ft 414 kts 238°
2026-05-08 23:06 47.07774 -57.29751 37582 ft 416 kts 237°
2026-05-08 23:07 47.05676 -57.36742 37607 ft 418 kts 238°
2026-05-08 23:07 47.03556 -57.43798 37593 ft 420 kts 238°
2026-05-08 23:08 47.01409 -57.50920 37637 ft 419 kts 239°
2026-05-08 23:08 46.99293 -57.57928 37612 ft 418 kts 238°
2026-05-08 23:09 46.97160 -57.64943 37631 ft 421 kts 238°
2026-05-08 23:09 46.95022 -57.71984 37639 ft 421 kts 238°
2026-05-08 23:10 46.92855 -57.79094 37643 ft 419 kts 238°
2026-05-08 23:10 46.90730 -57.86047 37638 ft 419 kts 238°
2026-05-08 23:11 46.88569 -57.93087 37651 ft 422 kts 238°
2026-05-08 23:11 46.86366 -58.00255 37650 ft 424 kts 238°
2026-05-08 23:12 46.84195 -58.07303 37648 ft 422 kts 238°
2026-05-08 23:12 46.82000 -58.14404 37670 ft 422 kts 238°
2026-05-08 23:13 46.79792 -58.21518 37656 ft 422 kts 239°
2026-05-08 23:13 46.77579 -58.28634 37674 ft 423 kts 238°
2026-05-08 23:14 46.75362 -58.35738 37664 ft 425 kts 239°
2026-05-08 23:14 46.73127 -58.42892 37668 ft 422 kts 239°
2026-05-08 23:15 46.70912 -58.49952 37671 ft 423 kts 239°
2026-05-08 23:15 46.68659 -58.57106 37680 ft 424 kts 239°
2026-05-08 23:16 46.66414 -58.64228 37676 ft 426 kts 239°
2026-05-08 23:16 46.64160 -58.71366 37673 ft 424 kts 239°
2026-05-08 23:17 46.61900 -58.78492 37684 ft 424 kts 239°
2026-05-08 23:17 46.59609 -58.85691 37683 ft 424 kts 239°
2026-05-08 23:18 46.57319 -58.92873 37681 ft 426 kts 239°
2026-05-08 23:18 46.54994 -59.00138 37679 ft 426 kts 239°
2026-05-08 23:19 46.52647 -59.07459 37695 ft 426 kts 239°
2026-05-08 23:19 46.50306 -59.14732 37703 ft 427 kts 239°
2026-05-08 23:20 46.47924 -59.22117 37690 ft 427 kts 239°
2026-05-08 23:20 46.45541 -59.29484 37693 ft 428 kts 239°
2026-05-08 23:21 46.43146 -59.36863 37699 ft 429 kts 239°
2026-05-08 23:21 46.40733 -59.44282 37701 ft 430 kts 239°
2026-05-08 23:22 46.38291 -59.51770 37713 ft 429 kts 240°
2026-05-08 23:22 46.35851 -59.59220 37702 ft 429 kts 240°
2026-05-08 23:23 46.33407 -59.66674 37709 ft 429 kts 239°
2026-05-08 23:23 46.30979 -59.74044 37718 ft 429 kts 239°
2026-05-08 23:24 46.28547 -59.81411 37721 ft 431 kts 239°
2026-05-08 23:24 46.26075 -59.88879 37728 ft 433 kts 239°
2026-05-08 23:25 46.23591 -59.96366 37704 ft 432 kts 240°
2026-05-08 23:25 46.21085 -60.03888 37719 ft 433 kts 240°
2026-05-08 23:26 46.18571 -60.11423 37724 ft 433 kts 240°
2026-05-08 23:26 46.16059 -60.18926 37722 ft 433 kts 240°
2026-05-08 23:27 46.13520 -60.26491 37723 ft 433 kts 240°
2026-05-08 23:27 46.10968 -60.34073 37715 ft 432 kts 240°
2026-05-08 23:28 46.08426 -60.41598 37710 ft 431 kts 240°
2026-05-08 23:28 46.05867 -60.49155 37707 ft 430 kts 240°
2026-05-08 23:29 46.03296 -60.56721 37707 ft 431 kts 240°
2026-05-08 23:29 46.00725 -60.64269 37716 ft 431 kts 240°
2026-05-08 23:30 45.98126 -60.71875 37729 ft 431 kts 239°
2026-05-08 23:30 45.95529 -60.79450 37735 ft 431 kts 239°
2026-05-08 23:31 45.92946 -60.86968 37744 ft 429 kts 240°
2026-05-08 23:31 45.90361 -60.94474 37744 ft 427 kts 240°
2026-05-08 23:32 45.87765 -61.01984 37747 ft 428 kts 240°
2026-05-08 23:32 45.85159 -61.09506 37746 ft 429 kts 240°
2026-05-08 23:33 45.82546 -61.17019 37735 ft 431 kts 240°
2026-05-08 23:33 45.79891 -61.24640 37735 ft 432 kts 240°
2026-05-08 23:34 45.77264 -61.32164 37739 ft 432 kts 240°
2026-05-08 23:34 45.74618 -61.39707 37740 ft 433 kts 240°
2026-05-08 23:35 45.71969 -61.47247 37738 ft 433 kts 240°
2026-05-08 23:35 45.69321 -61.54756 37745 ft 434 kts 241°
2026-05-08 23:36 45.66659 -61.62290 37745 ft 433 kts 240°
2026-05-08 23:36 45.64000 -61.69788 37749 ft 435 kts 240°
2026-05-08 23:37 45.61337 -61.77284 37745 ft 435 kts 240°
2026-05-08 23:37 45.58650 -61.84820 37746 ft 436 kts 240°
2026-05-08 23:38 45.55971 -61.92319 37755 ft 437 kts 240°
2026-05-08 23:38 45.53270 -61.99856 37755 ft 437 kts 240°
2026-05-08 23:39 45.50541 -62.07447 37755 ft 438 kts 240°
2026-05-08 23:39 45.47807 -62.15032 37748 ft 438 kts 240°
2026-05-08 23:40 45.45078 -62.22583 37751 ft 437 kts 240°
2026-05-08 23:40 45.42347 -62.30118 37756 ft 436 kts 240°
2026-05-08 23:41 45.39607 -62.37652 37757 ft 437 kts 241°
2026-05-08 23:41 45.36867 -62.45168 37757 ft 439 kts 241°
2026-05-08 23:42 45.34109 -62.52716 37761 ft 439 kts 241°
2026-05-08 23:42 45.31331 -62.60291 37763 ft 439 kts 241°
2026-05-08 23:43 45.28532 -62.67905 37772 ft 441 kts 241°
2026-05-08 23:43 45.25757 -62.75442 37766 ft 441 kts 241°
2026-05-08 23:44 45.22953 -62.83028 37757 ft 441 kts 241°
2026-05-08 23:44 45.20137 -62.90628 37760 ft 441 kts 241°
2026-05-08 23:45 45.17314 -62.98222 37763 ft 441 kts 241°
2026-05-08 23:45 45.14494 -63.05789 37772 ft 442 kts 241°
2026-05-08 23:46 45.11671 -63.13345 37767 ft 441 kts 241°
2026-05-08 23:46 45.08848 -63.20879 37770 ft 440 kts 242°
2026-05-08 23:47 45.06008 -63.28437 37772 ft 440 kts 241°
2026-05-08 23:47 45.03178 -63.35946 37776 ft 440 kts 242°
2026-05-08 23:48 45.00329 -63.43485 37773 ft 440 kts 242°
2026-05-08 23:48 44.97486 -63.50991 37770 ft 440 kts 242°
2026-05-08 23:49 44.94627 -63.58517 37774 ft 440 kts 242°
2026-05-08 23:49 44.91791 -63.65963 37778 ft 439 kts 241°
2026-05-08 23:50 44.88943 -63.73418 37797 ft 439 kts 241°
2026-05-08 23:50 44.86119 -63.80796 37799 ft 438 kts 241°
2026-05-08 23:51 44.83255 -63.88251 37804 ft 438 kts 241°
2026-05-08 23:51 44.80350 -63.95795 37813 ft 439 kts 242°
2026-05-08 23:52 44.77447 -64.03318 37821 ft 439 kts 242°
2026-05-08 23:52 44.74542 -64.10826 37822 ft 437 kts 242°
2026-05-08 23:53 44.71631 -64.18325 37822 ft 436 kts 242°
2026-05-08 23:53 44.68749 -64.25726 37825 ft 437 kts 242°
2026-05-08 23:54 44.65953 -64.32888 37822 ft 437 kts 242°
2026-05-08 23:55 44.61592 -64.44027 37823 ft 438 kts 242°
2026-05-08 23:55 44.58681 -64.51440 37823 ft 438 kts 242°
2026-05-08 23:56 44.55749 -64.58887 37825 ft 437 kts 242°
2026-05-08 23:56 44.52816 -64.66311 37826 ft 437 kts 241°
2026-05-08 23:57 44.49881 -64.73726 37827 ft 438 kts 241°
2026-05-08 23:57 44.47042 -64.80872 37409 ft 422 kts 241°
2026-05-08 23:57 44.45622 -64.84441 36668 ft 424 kts 241°
2026-05-08 23:58 44.44208 -64.87989 35949 ft 424 kts 241°
2026-05-08 23:58 44.42781 -64.91568 35820 ft 418 kts 241°
2026-05-08 23:58 44.41354 -64.95144 35889 ft 424 kts 241°
2026-05-08 23:59 44.38453 -65.02393 35834 ft 435 kts 242°
2026-05-08 23:59 44.35497 -65.09768 35825 ft 436 kts 242°
2026-05-09 00:00 44.32566 -65.17055 35828 ft 428 kts 242°
2026-05-09 00:00 44.29652 -65.24284 35841 ft 429 kts 242°
2026-05-09 00:01 44.26714 -65.31553 35851 ft 430 kts 242°
2026-05-09 00:01 44.23788 -65.38774 35849 ft 429 kts 242°
2026-05-09 00:02 44.20837 -65.46036 35846 ft 429 kts 242°
2026-05-09 00:02 44.17936 -65.53163 35846 ft 428 kts 242°
2026-05-09 00:03 44.15025 -65.60294 35851 ft 428 kts 242°
2026-05-09 00:03 44.12095 -65.67452 35861 ft 428 kts 242°
2026-05-09 00:04 44.09128 -65.74678 35867 ft 428 kts 242°
2026-05-09 00:04 44.06175 -65.81857 35871 ft 428 kts 242°
2026-05-09 00:05 44.03222 -65.89018 35873 ft 429 kts 242°
2026-05-09 00:05 44.00275 -65.96146 35880 ft 429 kts 242°
2026-05-09 00:06 43.97340 -66.03226 35880 ft 428 kts 242°
2026-05-09 00:06 43.94441 -66.10203 35885 ft 428 kts 242°
2026-05-09 00:07 43.91517 -66.17226 35883 ft 428 kts 242°
2026-05-09 00:07 43.88578 -66.24262 35885 ft 428 kts 242°
2026-05-09 00:08 43.86175 -66.30006 35885 ft 428 kts 242°
2026-05-09 00:08 43.83203 -66.37090 35888 ft 428 kts 242°
2026-05-09 00:09 43.80212 -66.44206 35884 ft 428 kts 242°
2026-05-09 00:09 43.77207 -66.51332 35884 ft 428 kts 243°
2026-05-09 00:10 43.74194 -66.58464 35889 ft 428 kts 243°
2026-05-09 00:10 43.71201 -66.65531 35890 ft 427 kts 242°
2026-05-09 00:11 43.68156 -66.72701 35898 ft 427 kts 242°
2026-05-09 00:11 43.65099 -66.79879 35893 ft 425 kts 242°
2026-05-09 00:12 43.62155 -66.86781 35892 ft 425 kts 242°
2026-05-09 00:12 43.59110 -66.93897 35896 ft 425 kts 242°
2026-05-09 00:13 43.56027 -67.00929 35896 ft 425 kts 240°
2026-05-09 00:13 43.53098 -67.08045 35908 ft 424 kts 243°
2026-05-09 00:14 43.50188 -67.15024 35906 ft 424 kts 243°
2026-05-09 00:14 43.47338 -67.21800 35910 ft 423 kts 243°
2026-05-09 00:15 43.44439 -67.28667 35901 ft 422 kts 243°
2026-05-09 00:15 43.41501 -67.35617 35902 ft 424 kts 243°
2026-05-09 00:16 43.38543 -67.42588 35902 ft 423 kts 243°
2026-05-09 00:16 43.35617 -67.49471 35906 ft 423 kts 243°
2026-05-09 00:17 43.32670 -67.56387 35906 ft 423 kts 243°
2026-05-09 00:17 43.29726 -67.63281 35907 ft 423 kts 243°
2026-05-09 00:18 43.26762 -67.70201 35924 ft 423 kts 243°
2026-05-09 00:18 43.23803 -67.77097 35923 ft 422 kts 243°
2026-05-09 00:19 43.20841 -67.83981 35922 ft 422 kts 243°
2026-05-09 00:19 43.17866 -67.90881 35930 ft 422 kts 243°
2026-05-09 00:20 43.14934 -67.97662 35924 ft 422 kts 243°
2026-05-09 00:20 43.11945 -68.04561 35923 ft 420 kts 243°
2026-05-09 00:21 43.09011 -68.11317 35923 ft 419 kts 243°
2026-05-09 00:21 43.06131 -68.17934 35927 ft 419 kts 243°
2026-05-09 00:22 43.03155 -68.24757 35921 ft 419 kts 243°
2026-05-09 00:22 43.00224 -68.31457 35917 ft 419 kts 243°
2026-05-09 00:23 42.97319 -68.38089 35919 ft 420 kts 243°
2026-05-09 00:23 42.94340 -68.44867 35919 ft 418 kts 243°
2026-05-09 00:24 42.91358 -68.51643 35913 ft 417 kts 243°
2026-05-09 00:24 42.88399 -68.58347 35913 ft 417 kts 243°
2026-05-09 00:25 42.85426 -68.65070 35913 ft 416 kts 243°
2026-05-09 00:25 42.82410 -68.71871 35929 ft 416 kts 243°
2026-05-09 00:26 42.79425 -68.78588 35940 ft 415 kts 243°
2026-05-09 00:26 42.76471 -68.85224 35926 ft 415 kts 243°
2026-05-09 00:27 42.73490 -68.91901 35935 ft 415 kts 243°
2026-05-09 00:27 42.70516 -68.98550 35941 ft 414 kts 243°
2026-05-09 00:28 42.67540 -69.05184 35933 ft 412 kts 243°
2026-05-09 00:28 42.64563 -69.11813 35932 ft 412 kts 243°
2026-05-09 00:29 42.61555 -69.18490 35941 ft 412 kts 243°
2026-05-09 00:29 42.58589 -69.25060 35930 ft 411 kts 243°
2026-05-09 00:30 42.55592 -69.31685 35925 ft 411 kts 244°
2026-05-09 00:30 42.52599 -69.38288 35932 ft 412 kts 244°
2026-05-09 00:31 42.49666 -69.44895 35926 ft 409 kts 244°
2026-05-09 00:31 42.46762 -69.51454 35922 ft 409 kts 244°
2026-05-09 00:32 42.43888 -69.57930 35917 ft 409 kts 244°
2026-05-09 00:32 42.41008 -69.64405 35922 ft 409 kts 244°
2026-05-09 00:33 42.38201 -69.70705 35934 ft 409 kts 244°
2026-05-09 00:33 42.35257 -69.77298 35932 ft 409 kts 244°
2026-05-09 00:34 42.32325 -69.83850 35948 ft 407 kts 244°
2026-05-09 00:34 42.29434 -69.90299 35933 ft 406 kts 244°
2026-05-09 00:35 42.26519 -69.96783 35933 ft 407 kts 244°
2026-05-09 00:35 42.23609 -70.03243 35934 ft 407 kts 244°
2026-05-09 00:36 42.20669 -70.09754 35938 ft 406 kts 244°
2026-05-09 00:36 42.17835 -70.16016 35939 ft 404 kts 244°
2026-05-09 00:37 42.14942 -70.22398 35935 ft 406 kts 244°
2026-05-09 00:37 42.12133 -70.28580 35941 ft 404 kts 244°
2026-05-09 00:38 42.09311 -70.34778 35893 ft 398 kts 244°
2026-05-09 00:38 42.07936 -70.37789 35682 ft 389 kts 245°
2026-05-09 00:38 42.06556 -70.40816 35189 ft 386 kts 244°
2026-05-09 00:38 42.05164 -70.43863 34527 ft 386 kts 244°
2026-05-09 00:39 42.03799 -70.46847 33925 ft 387 kts 245°
2026-05-09 00:39 42.01060 -70.52834 33970 ft 394 kts 245°
2026-05-09 00:40 41.98191 -70.59081 33893 ft 393 kts 245°
2026-05-09 00:40 41.96737 -70.62244 33684 ft 394 kts 245°
2026-05-09 00:40 41.95280 -70.65410 33483 ft 391 kts 245°
2026-05-09 00:41 41.92420 -70.71631 33122 ft 390 kts 245°
2026-05-09 00:41 41.90999 -70.74738 32950 ft 392 kts 245°
2026-05-09 00:41 41.89566 -70.77885 32770 ft 393 kts 245°
2026-05-09 00:41 41.88131 -70.81043 32587 ft 392 kts 245°
2026-05-09 00:42 41.86728 -70.84136 32399 ft 391 kts 245°
2026-05-09 00:42 41.85309 -70.87276 32199 ft 394 kts 245°
2026-05-09 00:42 41.83878 -70.90456 31966 ft 395 kts 245°
2026-05-09 00:42 41.82443 -70.93655 31732 ft 395 kts 245°
2026-05-09 00:43 41.81026 -70.96823 31506 ft 395 kts 245°
2026-05-09 00:43 41.79641 -70.99919 31076 ft 390 kts 246°
2026-05-09 00:43 41.78259 -71.03001 30608 ft 382 kts 246°
2026-05-09 00:43 41.76904 -71.06002 30450 ft 367 kts 246°
2026-05-09 00:44 41.75588 -71.08897 30143 ft 359 kts 246°
2026-05-09 00:44 41.74299 -71.11723 29864 ft 353 kts 246°
2026-05-09 00:44 41.73038 -71.14484 29579 ft 348 kts 246°
2026-05-09 00:44 41.71781 -71.17229 29166 ft 346 kts 246°
2026-05-09 00:45 41.70531 -71.19958 27654 ft 352 kts 246°
2026-05-09 00:45 41.69305 -71.22650 26183 ft 353 kts 246°
2026-05-09 00:45 41.68072 -71.25356 25023 ft 344 kts 246°
2026-05-09 00:45 41.66854 -71.28011 23746 ft 342 kts 246°
2026-05-09 00:46 41.65655 -71.30620 22559 ft 337 kts 246°
2026-05-09 00:46 41.64516 -71.33092 21465 ft 333 kts 246°
2026-05-09 00:46 41.63393 -71.35523 20433 ft 327 kts 246°
2026-05-09 00:46 41.62245 -71.37994 19334 ft 322 kts 246°
2026-05-09 00:47 41.61082 -71.40496 18149 ft 320 kts 245°
2026-05-09 00:47 41.59929 -71.42973 17040 ft 317 kts 245°
2026-05-09 00:47 41.58808 -71.45375 16037 ft 310 kts 245°
2026-05-09 00:47 41.57763 -71.47608 15149 ft 309 kts 245°
2026-05-09 00:48 41.56652 -71.49992 14777 ft 305 kts 245°
2026-05-09 00:48 41.55534 -71.52387 14401 ft 300 kts 245°
2026-05-09 00:48 41.54426 -71.54760 13874 ft 300 kts 245°
2026-05-09 00:48 41.53346 -71.57081 13406 ft 299 kts 244°
2026-05-09 00:49 41.52289 -71.59354 13103 ft 292 kts 245°
2026-05-09 00:49 41.51246 -71.61591 12821 ft 284 kts 244°
2026-05-09 00:49 41.50229 -71.63763 12544 ft 277 kts 244°
2026-05-09 00:49 41.49240 -71.65874 12241 ft 274 kts 244°
2026-05-09 00:50 41.48250 -71.67992 12013 ft 274 kts 244°
2026-05-09 00:50 41.47256 -71.70139 12013 ft 281 kts 244°
2026-05-09 00:50 41.46248 -71.72327 12000 ft 272 kts 244°
2026-05-09 00:50 41.45264 -71.74446 11983 ft 263 kts 245°
2026-05-09 00:51 41.44398 -71.76316 11996 ft 260 kts 244°
2026-05-09 00:51 41.43459 -71.78354 12005 ft 262 kts 245°
2026-05-09 00:51 41.42544 -71.80351 12007 ft 262 kts 245°
2026-05-09 00:51 41.41635 -71.82347 12007 ft 263 kts 245°
2026-05-09 00:52 41.40756 -71.84285 12006 ft 262 kts 245°
2026-05-09 00:52 41.39859 -71.86274 12012 ft 263 kts 245°
2026-05-09 00:52 41.38976 -71.88245 12006 ft 262 kts 245°
2026-05-09 00:52 41.38096 -71.90218 12006 ft 260 kts 246°
2026-05-09 00:53 41.37226 -71.92177 12006 ft 261 kts 246°
2026-05-09 00:53 41.36390 -71.94068 12003 ft 262 kts 246°
2026-05-09 00:53 41.35507 -71.96079 12005 ft 261 kts 246°
2026-05-09 00:53 41.34645 -71.98051 12002 ft 260 kts 246°
2026-05-09 00:54 41.33753 -72.00100 12006 ft 259 kts 246°
2026-05-09 00:54 41.32875 -72.02126 12006 ft 258 kts 246°
2026-05-09 00:54 41.31976 -72.04218 12002 ft 260 kts 246°
2026-05-09 00:54 41.31076 -72.06323 12007 ft 260 kts 247°
2026-05-09 00:55 41.30211 -72.08358 12006 ft 261 kts 246°
2026-05-09 00:55 41.29376 -72.10334 12002 ft 261 kts 246°
2026-05-09 00:55 41.28531 -72.12345 12004 ft 261 kts 247°
2026-05-09 00:55 41.27685 -72.14368 12003 ft 261 kts 247°
2026-05-09 00:56 41.26806 -72.16482 12002 ft 259 kts 248°
2026-05-09 00:56 41.25921 -72.18623 12002 ft 259 kts 248°
2026-05-09 00:56 41.25056 -72.20729 12010 ft 260 kts 248°
2026-05-09 00:56 41.24214 -72.22790 12015 ft 259 kts 248°
2026-05-09 00:57 41.23346 -72.24928 12008 ft 260 kts 248°
2026-05-09 00:57 41.22497 -72.27034 12000 ft 258 kts 248°
2026-05-09 00:57 41.21664 -72.29108 11995 ft 258 kts 248°
2026-05-09 00:57 41.20815 -72.31237 12014 ft 257 kts 249°
2026-05-09 00:58 41.19970 -72.33369 12001 ft 259 kts 249°
2026-05-09 00:58 41.19136 -72.35484 11997 ft 259 kts 249°
2026-05-09 00:58 41.18311 -72.37595 12002 ft 257 kts 249°
2026-05-09 00:58 41.17520 -72.39627 12007 ft 259 kts 249°
2026-05-09 00:59 41.16689 -72.41776 12006 ft 258 kts 249°
2026-05-09 00:59 41.15866 -72.43919 12006 ft 259 kts 249°
2026-05-09 00:59 41.15063 -72.46022 11996 ft 260 kts 250°
2026-05-09 00:59 41.14249 -72.48169 12004 ft 257 kts 250°
2026-05-09 01:00 41.13443 -72.50306 11996 ft 257 kts 250°
2026-05-09 01:00 41.12650 -72.52419 12000 ft 257 kts 250°
2026-05-09 01:00 41.11847 -72.54576 11999 ft 257 kts 250°
2026-05-09 01:00 41.11047 -72.56735 11998 ft 257 kts 250°
2026-05-09 01:01 41.10258 -72.58887 11988 ft 257 kts 250°
2026-05-09 01:01 41.09154 -72.60819 11983 ft 268 kts 231°
2026-05-09 01:01 41.07816 -72.62438 12004 ft 270 kts 231°
2026-05-09 01:01 41.06550 -72.63957 11999 ft 269 kts 231°
2026-05-09 01:02 41.05133 -72.65638 12003 ft 270 kts 230°
2026-05-09 01:02 41.03721 -72.67303 12012 ft 273 kts 230°
2026-05-09 01:02 41.02261 -72.69019 12012 ft 272 kts 230°
2026-05-09 01:02 41.00835 -72.70685 12009 ft 271 kts 230°
2026-05-09 01:03 40.99420 -72.72340 12010 ft 272 kts 230°
2026-05-09 01:03 40.98006 -72.73991 12011 ft 270 kts 230°
2026-05-09 01:03 40.96613 -72.75620 12012 ft 270 kts 230°
2026-05-09 01:03 40.95200 -72.77267 12003 ft 272 kts 230°
2026-05-09 01:04 40.93870 -72.78816 11953 ft 273 kts 230°
2026-05-09 01:04 40.92396 -72.80435 11706 ft 277 kts 224°
2026-05-09 01:04 40.90928 -72.82022 11569 ft 268 kts 232°
2026-05-09 01:04 40.89637 -72.83627 11450 ft 264 kts 231°
2026-05-09 01:05 40.88367 -72.85146 11430 ft 251 kts 230°
2026-05-09 01:05 40.87159 -72.86575 11373 ft 241 kts 231°
2026-05-09 01:05 40.84890 -72.89233 11207 ft 224 kts 231°
2026-05-09 01:06 40.83763 -72.90550 10972 ft 222 kts 231°
2026-05-09 01:06 40.82588 -72.91922 10655 ft 224 kts 230°
2026-05-09 01:06 40.81432 -72.93268 10425 ft 222 kts 230°
2026-05-09 01:06 40.80264 -72.94622 10166 ft 221 kts 230°
2026-05-09 01:07 40.79115 -72.95956 9736 ft 220 kts 230°
2026-05-09 01:07 40.77986 -72.97266 9219 ft 221 kts 229°
2026-05-09 01:07 40.76922 -72.98496 9103 ft 217 kts 229°
2026-05-09 01:07 40.75801 -72.99793 8893 ft 216 kts 229°
2026-05-09 01:08 40.74679 -73.01091 8584 ft 215 kts 229°
2026-05-09 01:08 40.73601 -73.02331 8504 ft 198 kts 229°
2026-05-09 01:08 40.72608 -73.03470 8455 ft 183 kts 229°
2026-05-09 01:08 40.71657 -73.04566 8272 ft 175 kts 229°
2026-05-09 01:09 40.70715 -73.05660 7952 ft 176 kts 229°
2026-05-09 01:09 40.69774 -73.06750 7635 ft 174 kts 229°
2026-05-09 01:09 40.68864 -73.07803 7132 ft 177 kts 229°
2026-05-09 01:09 40.67918 -73.08897 6709 ft 175 kts 228°
2026-05-09 01:10 40.66915 -73.09875 6240 ft 183 kts 207°
2026-05-09 01:10 40.65611 -73.09936 5761 ft 201 kts 166°
2026-05-09 01:10 40.64485 -73.08875 5372 ft 211 kts 127°
2026-05-09 01:10 40.64014 -73.07145 5031 ft 211 kts 93°
2026-05-09 01:11 40.63591 -73.05315 5040 ft 210 kts 132°
2026-05-09 01:11 40.62497 -73.04206 5050 ft 197 kts 171°
2026-05-09 01:11 40.61181 -73.04230 5055 ft 179 kts 212°
2026-05-09 01:11 40.60287 -73.05224 5150 ft 159 kts 237°
2026-05-09 01:12 40.59621 -73.06350 4977 ft 156 kts 237°
2026-05-09 01:12 40.59111 -73.07532 4985 ft 147 kts 255°
2026-05-09 01:12 40.58837 -73.08777 4653 ft 145 kts 256°
2026-05-09 01:12 40.58573 -73.10065 4127 ft 153 kts 257°
2026-05-09 01:13 40.58296 -73.11442 4022 ft 151 kts 257°
2026-05-09 01:13 40.58030 -73.12788 4046 ft 143 kts 257°
2026-05-09 01:13 40.57773 -73.14078 3941 ft 147 kts 257°
2026-05-09 01:13 40.57524 -73.15311 4043 ft 154 kts 257°
2026-05-09 01:14 40.57271 -73.16575 4034 ft 156 kts 257°
2026-05-09 01:14 40.57015 -73.17867 3990 ft 152 kts 257°
2026-05-09 01:14 40.56759 -73.19185 3979 ft 162 kts 257°
2026-05-09 01:14 40.56473 -73.20645 4043 ft 192 kts 257°
2026-05-09 01:15 40.56151 -73.22337 4001 ft 208 kts 257°
2026-05-09 01:15 40.55772 -73.24088 3999 ft 208 kts 247°
2026-05-09 01:15 40.54857 -73.25465 3991 ft 212 kts 215°
2026-05-09 01:15 40.53507 -73.26285 3812 ft 212 kts 207°
2026-05-09 01:16 40.52166 -73.27027 3557 ft 214 kts 207°
2026-05-09 01:16 40.50793 -73.27808 3334 ft 214 kts 207°
2026-05-09 01:16 40.49471 -73.28680 3115 ft 211 kts 221°
2026-05-09 01:17 40.48489 -73.32128 3036 ft 208 kts 268°
2026-05-09 01:17 40.48418 -73.33984 3011 ft 207 kts 268°
2026-05-09 01:17 40.48348 -73.35867 3010 ft 208 kts 268°
2026-05-09 01:17 40.48278 -73.37699 2998 ft 201 kts 268°
2026-05-09 01:18 40.48205 -73.39514 2992 ft 191 kts 268°
2026-05-09 01:18 40.48475 -73.41129 2982 ft 181 kts 300°
2026-05-09 01:18 40.49124 -73.42519 3085 ft 176 kts 299°
2026-05-09 01:18 40.49748 -73.43907 3044 ft 179 kts 299°
2026-05-09 01:19 40.50387 -73.45318 3001 ft 176 kts 299°
2026-05-09 01:19 40.51018 -73.46700 3014 ft 174 kts 299°
2026-05-09 01:19 40.51633 -73.48047 2997 ft 166 kts 300°
2026-05-09 01:19 40.52170 -73.49218 2971 ft 156 kts 299°
2026-05-09 01:20 40.52727 -73.50434 3013 ft 156 kts 300°
2026-05-09 01:20 40.53249 -73.51575 3009 ft 155 kts 299°
2026-05-09 01:20 40.53758 -73.52685 3007 ft 154 kts 299°
2026-05-09 01:20 40.54271 -73.53804 3008 ft 153 kts 299°
2026-05-09 01:21 40.54785 -73.54926 2999 ft 155 kts 299°
2026-05-09 01:21 40.55315 -73.56083 3003 ft 156 kts 300°
2026-05-09 01:21 40.55826 -73.57197 3034 ft 142 kts 299°
2026-05-09 01:21 40.56279 -73.58186 2954 ft 133 kts 299°
2026-05-09 01:22 40.56712 -73.59131 2987 ft 135 kts 299°
2026-05-09 01:22 40.57155 -73.60100 2800 ft 132 kts 299°
2026-05-09 01:22 40.57587 -73.61046 2653 ft 133 kts 299°
2026-05-09 01:22 40.58047 -73.62052 2492 ft 133 kts 299°
2026-05-09 01:23 40.58488 -73.63021 2331 ft 135 kts 300°
2026-05-09 01:23 40.58926 -73.63977 2163 ft 133 kts 300°
2026-05-09 01:23 40.59376 -73.64964 1997 ft 133 kts 300°
2026-05-09 01:23 40.59798 -73.65910 1837 ft 133 kts 299°
2026-05-09 01:24 40.60218 -73.66843 1677 ft 133 kts 300°
2026-05-09 01:24 40.60666 -73.67825 1506 ft 135 kts 300°
2026-05-09 01:24 40.61111 -73.68793 1347 ft 136 kts 301°
2026-05-09 01:24 40.61555 -73.69747 1188 ft 138 kts 301°
2026-05-09 01:25 40.62013 -73.70721 1027 ft 138 kts 301°
2026-05-09 01:25 40.62485 -73.71718 866 ft 138 kts 302°
2026-05-09 01:25 40.62948 -73.72682 708 ft 138 kts 302°
2026-05-09 01:25 40.63394 -73.73679 519 ft 139 kts 299°
2026-05-09 01:26 40.63821 -73.74707 293 ft 141 kts 298°
2026-05-09 01:26 40.64261 -73.75697 137 ft 140 kts 301°
2026-05-09 01:26 40.64713 -73.76668 27 ft 138 kts 301°
2026-05-09 01:26 40.65075 -73.77471 20 ft 84 kts 301°
2026-05-09 01:27 40.65244 -73.77850 20 ft 43 kts 301°
2026-05-09 01:27 40.65311 -73.78151 20 ft 27 kts 272°
2026-05-09 01:27 40.65315 -73.78240 20 ft 0 kts 274°
2026-05-09 01:28 40.65315 -73.78241 20 ft 0 kts 274°
2026-05-09 01:28 40.65334 -73.78319 20 ft 17 kts 296°
2026-05-09 01:28 40.65357 -73.78429 20 ft 12 kts 256°
2026-05-09 01:28 40.65287 -73.78455 20 ft 16 kts 126°
2026-05-09 01:29 40.65237 -73.78319 20 ft 16 kts 118°
2026-05-09 01:29 40.65180 -73.78193 20 ft 16 kts 121°
2026-05-09 01:29 40.65125 -73.78069 20 ft 16 kts 120°
2026-05-09 01:29 40.65070 -73.77945 20 ft 15 kts 121°
2026-05-09 01:30 40.65013 -73.77821 20 ft 15 kts 120°
2026-05-09 01:30 40.64955 -73.77694 20 ft 17 kts 122°
2026-05-09 01:30 40.64887 -73.77552 20 ft 20 kts 122°
2026-05-09 01:30 40.64815 -73.77390 20 ft 20 kts 120°
2026-05-09 01:31 40.64744 -73.77228 20 ft 20 kts 120°
2026-05-09 01:31 40.64653 -73.77100 20 ft 19 kts 157°
2026-05-09 01:31 40.64523 -73.77090 20 ft 19 kts 180°
2026-05-09 01:31 40.64407 -73.77126 20 ft 18 kts 210°
2026-05-09 01:32 40.64301 -73.77209 20 ft 18 kts 208°
2026-05-09 01:32 40.64199 -73.77286 20 ft 18 kts 211°
2026-05-09 01:32 40.64098 -73.77366 20 ft 17 kts 210°
2026-05-09 01:32 40.63997 -73.77443 20 ft 17 kts 210°
2026-05-09 01:33 40.63897 -73.77520 20 ft 17 kts 211°
2026-05-09 01:33 40.63799 -73.77601 20 ft 17 kts 211°
2026-05-09 01:33 40.63700 -73.77680 20 ft 17 kts 211°
2026-05-09 01:33 40.63604 -73.77755 20 ft 16 kts 209°
2026-05-09 01:34 40.63500 -73.77831 17 ft 18 kts 208°
2026-05-09 01:34 40.63420 -73.77934 17 ft 16 kts 242°
2026-05-09 01:34 40.63427 -73.78069 17 ft 15 kts 294°
2026-05-09 01:34 40.63475 -73.78182 16 ft 7 kts 301°
2026-05-09 01:35 40.63495 -73.78226 17 ft 5 kts 301°
2026-05-09 01:35 40.63506 -73.78251 17 ft 0 kts 301°
2026-05-09 01:36 40.63507 -73.78252 17 ft 0 kts 303°
2026-05-09 01:36 40.63547 -73.78256 17 ft 12 kts
2026-05-09 01:36 40.63643 -73.78257 19 ft 13 kts 357°
2026-05-09 01:37 40.63692 -73.78262 20 ft 13 kts 353°
2026-05-09 01:37 40.63784 -73.78278 20 ft 13 kts 351°
2026-05-09 01:37 40.63838 -73.78289 20 ft 13 kts 352°
2026-05-09 01:37 40.63919 -73.78317 20 ft 13 kts 333°
2026-05-09 01:38 40.63999 -73.78375 20 ft 13 kts 331°
2026-05-09 01:38 40.64047 -73.78401 20 ft 4 kts
2026-05-09 01:38 40.64077 -73.78368 20 ft 5 kts 45°
2026-05-09 01:38 40.64085 -73.78354 20 ft 0 kts 60°
2026-05-09 01:39 40.64095 -73.78332 20 ft 3 kts 59°
2026-05-09 01:39 40.64098 -73.78325 20 ft 0 kts 59°